| time (UTC) | temp C | wind direction | speed KPH | gust KPH | rain 1hr cm | rain 24hr cm | rain mn cm | humidity % | barometer mb |
| 20260506002700 | 20 | 29 | 14.5 | 25.7 | 0.00 | 0.00 | 0.00 | 74 | 1004.5 |
| 20260506002602 | 20 | 348 | 11.3 | 25.7 | 0.00 | 0.00 | 0.00 | 74 | 1004.5 |
| 20260506002501 | 21 | 11 | 11.3 | 25.7 | 0.00 | 0.00 | 0.00 | 74 | 1004.5 |
| 20260506002401 | 21 | 355 | 11.3 | 27.4 | 0.00 | 0.00 | 0.00 | 74 | 1004.6 |
| 20260506002305 | 21 | 344 | 12.9 | 27.4 | 0.00 | 0.00 | 0.00 | 74 | 1004.6 |
| 20260506002101 | 21 | 9 | 14.5 | 27.4 | 0.00 | 0.00 | 0.00 | 73 | 1004.7 |
| 20260506002000 | 21 | 5 | 14.5 | 27.4 | 0.00 | 0.00 | 0.00 | 72 | 1004.8 |
| 20260506001801 | 21 | 329 | 16.1 | 27.4 | 0.00 | 0.00 | 0.00 | 72 | 1004.9 |
| 20260506001700 | 21 | 355 | 17.7 | 27.4 | 0.00 | 0.00 | 0.00 | 72 | 1004.9 |
| 20260506001605 | 21 | 329 | 16.1 | 27.4 | 0.00 | 0.00 | 0.00 | 73 | 1003.7 |
| 20260506001600 | 21 | 329 | 17.7 | 27.4 | 0.00 | 0.00 | 0.00 | 73 | 1004.9 |
| 20260506001500 | 21 | 355 | 16.1 | 22.5 | 0.00 | 0.00 | 0.00 | 73 | 1004.8 |
| 20260506001300 | 22 | 328 | 12.9 | 20.9 | 0.00 | 0.00 | 0.00 | 73 | 1004.5 |
| 20260506001000 | 22 | 5 | 11.3 | 20.9 | 0.00 | 0.00 | 0.00 | 72 | 1004.4 |
| 20260506000700 | 22 | 360 | 12.9 | 20.9 | 0.00 | 0.00 | 0.00 | 71 | 1004.5 |
| 20260506000500 | 22 | 323 | 12.9 | 20.9 | 0.00 | 0.00 | 0.00 | 71 | 1004.5 |
| 20260506000401 | 22 | 335 | 14.5 | 20.9 | 0.00 | 0.00 | 0.00 | 71 | 1004.6 |
| 20260506000302 | 22 | 355 | 12.9 | 20.9 | 0.00 | 0.00 | 0.00 | 71 | 1004.6 |
| 20260506000200 | 22 | 333 | 11.3 | 19.3 | 0.00 | 0.00 | 0.00 | 71 | 1004.5 |
| 20260506000122 | 22 | 348 | 11.3 | 19.3 | 0.00 | 0.00 | 0.00 | 71 | 1003.2 |
| 20260506000101 | 22 | 348 | 11.3 | 19.3 | 0.00 | 0.00 | 0.00 | 71 | 1004.5 |
| 20260506000002 | 22 | 350 | 12.9 | 19.3 | 0.00 | 0.00 | 0.00 | 71 | 1004.5 |
| 20260505235900 | 22 | 346 | 12.9 | 19.3 | 0.00 | 0.00 | 0.00 | 70 | 1004.6 |
| 20260505235800 | 22 | 347 | 11.3 | 25.7 | 0.00 | 0.00 | 0.00 | 70 | 1004.6 |
| 20260505235700 | 22 | 331 | 11.3 | 25.7 | 0.00 | 0.00 | 0.00 | 70 | 1004.6 |
| 20260505235600 | 22 | 341 | 11.3 | 25.7 | 0.00 | 0.00 | 0.00 | 70 | 1004.7 |
| 20260505235500 | 22 | 336 | 14.5 | 25.7 | 0.00 | 0.00 | 0.00 | 70 | 1004.7 |
| 20260505235400 | 22 | 322 | 14.5 | 25.7 | 0.00 | 0.00 | 0.00 | 70 | 1004.8 |
| 20260505235301 | 22 | 320 | 14.5 | 25.7 | 0.00 | 0.00 | 0.00 | 70 | 1004.8 |
| 20260505235200 | 22 | 332 | 14.5 | 25.7 | 0.00 | 0.00 | 0.00 | 70 | 1004.9 |
| 20260505235100 | 22 | 317 | 14.5 | 25.7 | 0.00 | 0.00 | 0.00 | 70 | 1004.9 |
| 20260505235000 | 22 | 311 | 16.1 | 25.7 | 0.00 | 0.00 | 0.00 | 70 | 1005.0 |
| 20260505234901 | 22 | 319 | 16.1 | 25.7 | 0.00 | 0.00 | 0.00 | 70 | 1005.0 |
| 20260505234801 | 22 | 319 | 16.1 | 25.7 | 0.00 | 0.00 | 0.00 | 69 | 1004.9 |
| 20260505234700 | 22 | 310 | 16.1 | 25.7 | 0.00 | 0.00 | 0.00 | 69 | 1004.8 |
| 20260505234606 | 22 | 308 | 14.5 | 25.7 | 0.00 | 0.00 | 0.00 | 69 | 1003.5 |
| 20260505234600 | 22 | 308 | 16.1 | 25.7 | 0.00 | 0.00 | 0.00 | 69 | 1004.8 |
| 20260505234500 | 22 | 344 | 14.5 | 25.7 | 0.00 | 0.00 | 0.00 | 69 | 1004.7 |
| 20260505234300 | 22 | 315 | 11.3 | 25.7 | 0.00 | 0.00 | 0.00 | 69 | 1004.3 |
| 20260505233859 | 22 | 343 | 14.5 | 24.1 | 0.00 | 0.00 | 0.00 | 69 | 1003.7 |
| 20260505233801 | 22 | 331 | 11.3 | 24.1 | 0.00 | 0.00 | 0.00 | 70 | 1003.7 |
| 20260505233700 | 22 | 16 | 11.3 | 24.1 | 0.00 | 0.00 | 0.00 | 70 | 1003.7 |
| 20260505233600 | 22 | 349 | 11.3 | 24.1 | 0.00 | 0.00 | 0.00 | 70 | 1003.6 |
| 20260505233501 | 22 | 323 | 12.9 | 24.1 | 0.00 | 0.00 | 0.00 | 70 | 1003.7 |
| 20260505233400 | 22 | 5 | 9.7 | 24.1 | 0.00 | 0.00 | 0.00 | 70 | 1003.8 |
| 20260505233301 | 22 | 360 | 9.7 | 24.1 | 0.00 | 0.00 | 0.00 | 70 | 1004.0 |
| 20260505233200 | 22 | 342 | 9.7 | 24.1 | 0.00 | 0.00 | 0.00 | 71 | 1004.3 |
| 20260505233102 | 22 | 333 | 9.7 | 24.1 | 0.00 | 0.00 | 0.00 | 71 | 1003.2 |
| 20260505233100 | 22 | 333 | 9.7 | 24.1 | 0.00 | 0.00 | 0.00 | 71 | 1004.5 |
| 20260505233000 | 22 | 331 | 12.9 | 24.1 | 0.00 | 0.00 | 0.00 | 70 | 1004.6 |
| 20260505232900 | 22 | 342 | 14.5 | 24.1 | 0.00 | 0.00 | 0.00 | 70 | 1004.8 |
| 20260505232800 | 22 | 294 | 14.5 | 24.1 | 0.00 | 0.00 | 0.00 | 70 | 1004.9 |
| 20260505232601 | 23 | 312 | 12.9 | 22.5 | 0.00 | 0.00 | 0.00 | 70 | 1004.8 |
| 20260505232500 | 23 | 306 | 14.5 | 22.5 | 0.00 | 0.00 | 0.00 | 70 | 1004.7 |
| 20260505232401 | 23 | 355 | 16.1 | 22.5 | 0.00 | 0.00 | 0.00 | 69 | 1004.6 |
| 20260505232300 | 23 | 317 | 16.1 | 24.1 | 0.00 | 0.00 | 0.00 | 70 | 1004.6 |
| 20260505232200 | 23 | 315 | 14.5 | 24.1 | 0.00 | 0.00 | 0.00 | 70 | 1004.5 |
| 20260505232100 | 23 | 319 | 14.5 | 24.1 | 0.00 | 0.00 | 0.00 | 70 | 1004.5 |
| 20260505232000 | 23 | 314 | 14.5 | 24.1 | 0.00 | 0.00 | 0.00 | 70 | 1004.5 |
| 20260505231901 | 23 | 340 | 14.5 | 25.7 | 0.00 | 0.00 | 0.00 | 69 | 1004.4 |
| 20260505231801 | 23 | 303 | 14.5 | 25.7 | 0.00 | 0.00 | 0.00 | 69 | 1004.3 |
| 20260505231700 | 23 | 313 | 16.1 | 25.7 | 0.00 | 0.00 | 0.00 | 69 | 1004.3 |
| 20260505231614 | 23 | 321 | 16.1 | 25.7 | 0.00 | 0.00 | 0.00 | 69 | 1003.0 |
| 20260505231601 | 23 | 321 | 17.7 | 25.7 | 0.00 | 0.00 | 0.00 | 69 | 1004.3 |
| 20260505231459 | 23 | 324 | 16.1 | 25.7 | 0.00 | 0.00 | 0.00 | 69 | 1004.2 |
| 20260505231400 | 23 | 327 | 16.1 | 25.7 | 0.00 | 0.00 | 0.00 | 69 | 1004.1 |
| 20260505231300 | 23 | 334 | 16.1 | 30.6 | 0.00 | 0.00 | 0.00 | 68 | 1004.1 |
| 20260505231201 | 23 | 331 | 17.7 | 30.6 | 0.00 | 0.00 | 0.00 | 68 | 1004.0 |
| 20260505231100 | 23 | 296 | 17.7 | 30.6 | 0.00 | 0.00 | 0.00 | 68 | 1004.1 |
| 20260505231000 | 23 | 333 | 17.7 | 30.6 | 0.00 | 0.00 | 0.00 | 68 | 1004.2 |
| 20260505230900 | 23 | 330 | 14.5 | 30.6 | 0.00 | 0.00 | 0.00 | 68 | 1004.2 |
| 20260505230801 | 23 | 324 | 14.5 | 30.6 | 0.00 | 0.00 | 0.00 | 68 | 1004.2 |
| 20260505230700 | 23 | 324 | 17.7 | 30.6 | 0.00 | 0.00 | 0.00 | 68 | 1004.2 |
| 20260505230600 | 23 | 355 | 19.3 | 30.6 | 0.00 | 0.00 | 0.00 | 67 | 1004.2 |
| 20260505230500 | 23 | 336 | 19.3 | 30.6 | 0.00 | 0.00 | 0.00 | 67 | 1004.3 |
| 20260505230400 | 23 | 302 | 16.1 | 29.0 | 0.00 | 0.00 | 0.00 | 67 | 1004.3 |
| 20260505230300 | 23 | 322 | 12.9 | 27.4 | 0.00 | 0.00 | 0.00 | 68 | 1004.3 |
| 20260505230201 | 24 | 346 | 16.1 | 27.4 | 0.00 | 0.00 | 0.00 | 67 | 1004.2 |
| 20260505230110 | 24 | 330 | 17.7 | 27.4 | 0.00 | 0.00 | 0.00 | 67 | 1002.8 |
| 20260505230005 | 24 | 340 | 17.7 | 27.4 | 0.00 | 0.00 | 0.00 | 67 | 1002.8 |
| 20260505230002 | 24 | 334 | 17.7 | 27.4 | 0.00 | 0.00 | 0.00 | 67 | 1004.1 |
| 20260505225900 | 24 | 311 | 17.7 | 27.4 | 0.00 | 0.00 | 0.00 | 67 | 1004.0 |
| 20260505225800 | 24 | 330 | 16.1 | 27.4 | 0.00 | 0.00 | 0.00 | 67 | 1003.9 |
| 20260505225701 | 24 | 308 | 16.1 | 27.4 | 0.00 | 0.00 | 0.00 | 67 | 1003.9 |
| 20260505225600 | 25 | 333 | 17.7 | 25.7 | 0.00 | 0.00 | 0.00 | 66 | 1003.9 |
| 20260505225500 | 25 | 312 | 19.3 | 25.7 | 0.00 | 0.00 | 0.00 | 65 | 1003.9 |
| 20260505225401 | 25 | 326 | 17.7 | 25.7 | 0.00 | 0.00 | 0.00 | 65 | 1003.8 |
| 20260505225300 | 25 | 355 | 17.7 | 25.7 | 0.00 | 0.00 | 0.00 | 65 | 1003.8 |
| 20260505225200 | 25 | 340 | 14.5 | 25.7 | 0.00 | 0.00 | 0.00 | 65 | 1003.8 |
| 20260505225102 | 25 | 342 | 14.5 | 25.7 | 0.00 | 0.00 | 0.00 | 64 | 1003.8 |
| 20260505225000 | 25 | 342 | 14.5 | 25.7 | 0.00 | 0.00 | 0.00 | 64 | 1003.8 |
| 20260505224900 | 25 | 325 | 14.5 | 25.7 | 0.00 | 0.00 | 0.00 | 64 | 1003.9 |
| 20260505224800 | 25 | 323 | 14.5 | 25.7 | 0.00 | 0.00 | 0.00 | 63 | 1003.8 |
| 20260505224700 | 25 | 311 | 14.5 | 24.1 | 0.00 | 0.00 | 0.00 | 63 | 1003.9 |
| 20260505224601 | 25 | 302 | 12.9 | 20.9 | 0.00 | 0.00 | 0.00 | 63 | 1002.5 |
| 20260505224500 | 25 | 317 | 12.9 | 20.9 | 0.00 | 0.00 | 0.00 | 63 | 1003.8 |
| 20260505224400 | 25 | 308 | 12.9 | 20.9 | 0.00 | 0.00 | 0.00 | 63 | 1003.7 |
| 20260505224301 | 25 | 331 | 12.9 | 22.5 | 0.00 | 0.00 | 0.00 | 63 | 1003.7 |
| 20260505224201 | 25 | 315 | 14.5 | 22.5 | 0.00 | 0.00 | 0.00 | 63 | 1003.7 |
| 20260505224100 | 25 | 324 | 14.5 | 22.5 | 0.00 | 0.00 | 0.00 | 62 | 1003.7 |
| 20260505224000 | 25 | 317 | 14.5 | 22.5 | 0.00 | 0.00 | 0.00 | 62 | 1003.7 |
| 20260505223900 | 25 | 304 | 11.3 | 22.5 | 0.00 | 0.00 | 0.00 | 62 | 1003.7 |
| 20260505223800 | 25 | 317 | 9.7 | 22.5 | 0.00 | 0.00 | 0.00 | 62 | 1003.6 |
| 20260505223701 | 26 | 350 | 11.3 | 22.5 | 0.00 | 0.00 | 0.00 | 62 | 1003.6 |
| 20260505223600 | 26 | 337 | 12.9 | 22.5 | 0.00 | 0.00 | 0.00 | 61 | 1003.6 |
| 20260505223500 | 26 | 325 | 14.5 | 22.5 | 0.00 | 0.00 | 0.00 | 61 | 1003.6 |
| 20260505223401 | 26 | 317 | 14.5 | 20.9 | 0.00 | 0.00 | 0.00 | 61 | 1003.5 |
| 20260505223300 | 26 | 311 | 14.5 | 22.5 | 0.00 | 0.00 | 0.00 | 61 | 1003.5 |
| 20260505223200 | 26 | 318 | 12.9 | 22.5 | 0.00 | 0.00 | 0.00 | 61 | 1003.5 |
| 20260505223104 | 26 | 326 | 12.9 | 22.5 | 0.00 | 0.00 | 0.00 | 61 | 1002.2 |
| 20260505223101 | 26 | 326 | 14.5 | 22.5 | 0.00 | 0.00 | 0.00 | 61 | 1003.5 |
| 20260505223000 | 26 | 324 | 16.1 | 22.5 | 0.00 | 0.00 | 0.00 | 61 | 1003.5 |
| 20260505222901 | 26 | 327 | 14.5 | 22.5 | 0.00 | 0.00 | 0.00 | 61 | 1003.5 |
| 20260505222600 | 26 | 309 | 12.9 | 22.5 | 0.00 | 0.00 | 0.00 | 60 | 1003.4 |
| 20260505222500 | 26 | 322 | 14.5 | 22.5 | 0.00 | 0.00 | 0.00 | 59 | 1003.4 |
| 20260505222400 | 26 | 335 | 14.5 | 27.4 | 0.00 | 0.00 | 0.00 | 59 | 1003.4 |
| 20260505222300 | 26 | 337 | 14.5 | 27.4 | 0.00 | 0.00 | 0.00 | 60 | 1003.2 |
| 20260505222200 | 26 | 323 | 16.1 | 27.4 | 0.00 | 0.00 | 0.00 | 58 | 1003.2 |
| 20260505222101 | 27 | 330 | 14.5 | 27.4 | 0.00 | 0.00 | 0.00 | 58 | 1003.2 |
| 20260505222000 | 27 | 321 | 14.5 | 27.4 | 0.00 | 0.00 | 0.00 | 57 | 1003.1 |
| 20260505221900 | 27 | 317 | 14.5 | 27.4 | 0.00 | 0.00 | 0.00 | 58 | 1003.1 |
| 20260505221800 | 27 | 306 | 16.1 | 27.4 | 0.00 | 0.00 | 0.00 | 56 | 1003.1 |
| 20260505221700 | 27 | 327 | 16.1 | 27.4 | 0.00 | 0.00 | 0.00 | 56 | 1003.1 |
| 20260505221604 | 27 | 286 | 16.1 | 27.4 | 0.00 | 0.00 | 0.00 | 56 | 1001.7 |
| 20260505221500 | 27 | 315 | 16.1 | 25.7 | 0.00 | 0.00 | 0.00 | 56 | 1003.0 |
| 20260505221300 | 28 | 331 | 9.7 | 22.5 | 0.00 | 0.00 | 0.00 | 56 | 1002.9 |
| 20260505221200 | 28 | 327 | 9.7 | 17.7 | 0.00 | 0.00 | 0.00 | 55 | 1002.8 |
| 20260505221100 | 28 | 333 | 11.3 | 17.7 | 0.00 | 0.00 | 0.00 | 55 | 1002.8 |
| 20260505220700 | 27 | 327 | 9.7 | 17.7 | 0.00 | 0.00 | 0.00 | 58 | 1002.9 |
| 20260505220501 | 27 | 301 | 8.0 | 17.7 | 0.00 | 0.00 | 0.00 | 57 | 1002.8 |
| 20260505220200 | 27 | 285 | 6.4 | 17.7 | 0.00 | 0.00 | 0.00 | 58 | 1002.8 |
| 20260505220100 | 27 | 336 | 9.7 | 17.7 | 0.00 | 0.00 | 0.00 | 54 | 1002.8 |
| 20260505215859 | 27 | 309 | 9.7 | 17.7 | 0.00 | 0.00 | 0.00 | 54 | 1002.9 |
| 20260505215800 | 27 | 286 | 9.7 | 17.7 | 0.00 | 0.00 | 0.00 | 55 | 1002.9 |
| 20260505215659 | 27 | 310 | 9.7 | 17.7 | 0.00 | 0.00 | 0.00 | 55 | 1002.9 |
| 20260505215500 | 27 | 294 | 11.3 | 17.7 | 0.00 | 0.00 | 0.00 | 52 | 1002.9 |
| 20260505215359 | 27 | 304 | 11.3 | 17.7 | 0.00 | 0.00 | 0.00 | 54 | 1002.9 |
| 20260505215259 | 27 | 283 | 8.0 | 14.5 | 0.00 | 0.00 | 0.00 | 56 | 1002.9 |
| 20260505215159 | 27 | 292 | 6.4 | 14.5 | 0.00 | 0.00 | 0.00 | 58 | 1002.9 |
| 20260505215100 | 27 | 294 | 4.8 | 16.1 | 0.00 | 0.00 | 0.00 | 55 | 1002.9 |
| 20260505214959 | 27 | 279 | 6.4 | 16.1 | 0.00 | 0.00 | 0.00 | 55 | 1002.9 |
| 20260505214900 | 27 | 296 | 6.4 | 16.1 | 0.00 | 0.00 | 0.00 | 55 | 1002.8 |
| 20260505214759 | 27 | 290 | 6.4 | 16.1 | 0.00 | 0.00 | 0.00 | 53 | 1002.8 |
| 20260505214701 | 27 | 314 | 6.4 | 16.1 | 0.00 | 0.00 | 0.00 | 55 | 1002.8 |
| 20260505214600 | 27 | 296 | 8.0 | 16.1 | 0.00 | 0.00 | 0.00 | 55 | 1002.8 |
| 20260505214559 | 27 | 296 | 6.4 | 16.1 | 0.00 | 0.00 | 0.00 | 55 | 1001.5 |
| 20260505214459 | 27 | 304 | 8.0 | 16.1 | 0.00 | 0.00 | 0.00 | 53 | 1002.8 |
| 20260505214400 | 27 | 307 | 8.0 | 16.1 | 0.00 | 0.00 | 0.00 | 54 | 1002.8 |
| 20260505214259 | 27 | 305 | 9.7 | 16.1 | 0.00 | 0.00 | 0.00 | 54 | 1002.9 |
| 20260505214159 | 27 | 321 | 8.0 | 16.1 | 0.00 | 0.00 | 0.00 | 53 | 1002.9 |
| 20260505214100 | 27 | 306 | 6.4 | 19.3 | 0.00 | 0.00 | 0.00 | 56 | 1002.9 |
| 20260505213959 | 27 | 294 | 8.0 | 22.5 | 0.00 | 0.00 | 0.00 | 55 | 1003.0 |
| 20260505213900 | 27 | 284 | 9.7 | 22.5 | 0.00 | 0.00 | 0.00 | 55 | 1003.0 |
| 20260505213759 | 27 | 315 | 9.7 | 22.5 | 0.00 | 0.00 | 0.00 | 54 | 1003.1 |
| 20260505213700 | 27 | 294 | 9.7 | 22.5 | 0.00 | 0.00 | 0.00 | 54 | 1003.1 |
| 20260505213559 | 27 | 280 | 9.7 | 22.5 | 0.00 | 0.00 | 0.00 | 54 | 1003.1 |
| 20260505213459 | 28 | 280 | 11.3 | 22.5 | 0.00 | 0.00 | 0.00 | 54 | 1003.2 |
| 20260505213300 | 28 | 317 | 14.5 | 25.7 | 0.00 | 0.00 | 0.00 | 53 | 1003.1 |
| 20260505213100 | 28 | 320 | 14.5 | 25.7 | 0.00 | 0.00 | 0.00 | 52 | 1003.1 |
| 20260505213059 | 28 | 320 | 12.9 | 25.7 | 0.00 | 0.00 | 0.00 | 52 | 1001.8 |
| 20260505212959 | 28 | 295 | 14.5 | 25.7 | 0.00 | 0.00 | 0.00 | 53 | 1003.1 |
| 20260505212859 | 28 | 275 | 14.5 | 25.7 | 0.00 | 0.00 | 0.00 | 53 | 1003.2 |
| 20260505212800 | 28 | 287 | 16.1 | 25.7 | 0.00 | 0.00 | 0.00 | 52 | 1003.1 |
| 20260505212659 | 28 | 304 | 14.5 | 25.7 | 0.00 | 0.00 | 0.00 | 52 | 1003.2 |
| 20260505212559 | 28 | 293 | 14.5 | 25.7 | 0.00 | 0.00 | 0.00 | 52 | 1003.1 |
| 20260505212459 | 28 | 277 | 16.1 | 25.7 | 0.00 | 0.00 | 0.00 | 52 | 1003.1 |
| 20260505212400 | 28 | 286 | 14.5 | 25.7 | 0.00 | 0.00 | 0.00 | 53 | 1003.1 |
| 20260505212259 | 29 | 284 | 12.9 | 25.7 | 0.00 | 0.00 | 0.00 | 52 | 1003.0 |
| 20260505212159 | 29 | 283 | 11.3 | 20.9 | 0.00 | 0.00 | 0.00 | 53 | 1003.1 |
| 20260505212059 | 29 | 290 | 12.9 | 20.9 | 0.00 | 0.00 | 0.00 | 54 | 1003.0 |
| 20260505212001 | 29 | 291 | 12.9 | 20.9 | 0.00 | 0.00 | 0.00 | 52 | 1003.1 |
| 20260505211859 | 30 | 272 | 16.1 | 20.9 | 0.00 | 0.00 | 0.00 | 54 | 1003.0 |
| 20260505211759 | 30 | 296 | 14.5 | 20.9 | 0.00 | 0.00 | 0.00 | 54 | 1002.9 |
| 20260505211700 | 30 | 305 | 12.9 | 20.9 | 0.00 | 0.00 | 0.00 | 54 | 1002.9 |
| 20260505211559 | 30 | 290 | 12.9 | 20.9 | 0.00 | 0.00 | 0.00 | 58 | 1002.8 |
| 20260505211500 | 30 | 271 | 12.9 | 20.9 | 0.00 | 0.00 | 0.00 | 57 | 1002.8 |
| 20260505211400 | 30 | 275 | 8.0 | 20.9 | 0.00 | 0.00 | 0.00 | 59 | 1002.8 |
| 20260505211300 | 30 | 265 | 3.2 | 19.3 | 0.00 | 0.00 | 0.00 | 60 | 1002.9 |
| 20260505211100 | 30 | 233 | 4.8 | 19.3 | 0.00 | 0.00 | 0.00 | 60 | 1002.9 |
| 20260505211000 | 30 | 237 | 4.8 | 19.3 | 0.00 | 0.00 | 0.00 | 60 | 1002.9 |
| 20260505210901 | 30 | 276 | 4.8 | 19.3 | 0.00 | 0.00 | 0.00 | 61 | 1002.9 |
| 20260505210800 | 30 | 249 | 4.8 | 19.3 | 0.00 | 0.00 | 0.00 | 60 | 1003.0 |
| 20260505210700 | 30 | 234 | 4.8 | 19.3 | 0.00 | 0.00 | 0.00 | 61 | 1003.1 |
| 20260505210600 | 30 | 250 | 4.8 | 19.3 | 0.00 | 0.00 | 0.00 | 60 | 1003.2 |
| 20260505210502 | 30 | 238 | 6.4 | 19.3 | 0.00 | 0.00 | 0.00 | 60 | 1003.1 |
| 20260505210359 | 30 | 243 | 8.0 | 19.3 | 0.00 | 0.00 | 0.00 | 60 | 1003.1 |
| 20260505210259 | 30 | 226 | 9.7 | 24.1 | 0.00 | 0.00 | 0.00 | 60 | 1003.1 |
| 20260505210059 | 30 | 222 | 8.0 | 24.1 | 0.00 | 0.00 | 0.00 | 61 | 1001.8 |
| 20260505210002 | 30 | 246 | 8.0 | 24.1 | 0.00 | 0.00 | 0.00 | 61 | 1003.1 |
| 20260505205900 | 29 | 216 | 9.7 | 24.1 | 0.00 | 0.00 | 0.00 | 61 | 1003.0 |
| 20260505205800 | 29 | 248 | 11.3 | 24.1 | 0.00 | 0.00 | 0.00 | 61 | 1003.1 |
| 20260505205701 | 29 | 238 | 12.9 | 24.1 | 0.00 | 0.00 | 0.00 | 61 | 1003.1 |
| 20260505205600 | 29 | 230 | 9.7 | 22.5 | 0.00 | 0.00 | 0.00 | 60 | 1003.0 |
| 20260505205500 | 29 | 250 | 8.0 | 22.5 | 0.00 | 0.00 | 0.00 | 62 | 1003.1 |
| 20260505205400 | 29 | 238 | 8.0 | 22.5 | 0.00 | 0.00 | 0.00 | 61 | 1003.1 |
| 20260505205300 | 29 | 244 | 8.0 | 22.5 | 0.00 | 0.00 | 0.00 | 60 | 1003.1 |
| 20260505205200 | 29 | 247 | 8.0 | 22.5 | 0.00 | 0.00 | 0.00 | 62 | 1003.1 |
| 20260505205100 | 29 | 244 | 8.0 | 22.5 | 0.00 | 0.00 | 0.00 | 61 | 1003.1 |
| 20260505205000 | 29 | 229 | 8.0 | 22.5 | 0.00 | 0.00 | 0.00 | 60 | 1003.1 |
| 20260505204801 | 29 | 207 | 11.3 | 22.5 | 0.00 | 0.00 | 0.00 | 60 | 1003.1 |
| 20260505204700 | 30 | 240 | 12.9 | 22.5 | 0.00 | 0.00 | 0.00 | 60 | 1003.1 |
| 20260505204604 | 30 | 261 | 14.5 | 22.5 | 0.00 | 0.00 | 0.00 | 60 | 1001.8 |
| 20260505204601 | 30 | 261 | 14.5 | 22.5 | 0.00 | 0.00 | 0.00 | 60 | 1003.1 |
| 20260505204501 | 30 | 242 | 14.5 | 22.5 | 0.00 | 0.00 | 0.00 | 60 | 1003.2 |
| 20260505204400 | 30 | 244 | 12.9 | 22.5 | 0.00 | 0.00 | 0.00 | 60 | 1003.3 |
| 20260505204202 | 30 | 254 | 9.7 | 17.7 | 0.00 | 0.00 | 0.00 | 61 | 1003.2 |
| 20260505204101 | 30 | 239 | 8.0 | 16.1 | 0.00 | 0.00 | 0.00 | 61 | 1003.1 |
| 20260505204001 | 30 | 214 | 6.4 | 16.1 | 0.00 | 0.00 | 0.00 | 62 | 1003.2 |
| 20260505203902 | 30 | 202 | 8.0 | 16.1 | 0.00 | 0.00 | 0.00 | 63 | 1003.1 |
| 20260505203801 | 30 | 220 | 9.7 | 16.1 | 0.00 | 0.00 | 0.00 | 62 | 1003.1 |
| 20260505203702 | 30 | 250 | 9.7 | 17.7 | 0.00 | 0.00 | 0.00 | 61 | 1003.1 |
| 20260505203601 | 30 | 235 | 8.0 | 19.3 | 0.00 | 0.00 | 0.00 | 61 | 1003.1 |
| 20260505203500 | 29 | 227 | 6.4 | 19.3 | 0.00 | 0.00 | 0.00 | 63 | 1003.1 |
| 20260505203401 | 29 | 212 | 4.8 | 19.3 | 0.00 | 0.00 | 0.00 | 63 | 1003.1 |
| 20260505203300 | 29 | 198 | 4.8 | 19.3 | 0.00 | 0.00 | 0.00 | 64 | 1003.1 |
| 20260505203203 | 29 | 231 | 4.8 | 19.3 | 0.00 | 0.00 | 0.00 | 62 | 1003.2 |
| 20260505203110 | 29 | 208 | 8.0 | 19.3 | 0.00 | 0.00 | 0.00 | 62 | 1001.8 |
| 20260505203100 | 29 | 208 | 8.0 | 19.3 | 0.00 | 0.00 | 0.00 | 62 | 1003.1 |
| 20260505203000 | 29 | 241 | 11.3 | 19.3 | 0.00 | 0.00 | 0.00 | 61 | 1003.2 |
| 20260505202900 | 29 | 236 | 11.3 | 19.3 | 0.00 | 0.00 | 0.00 | 61 | 1003.2 |
| 20260505202800 | 29 | 223 | 9.7 | 19.3 | 0.00 | 0.00 | 0.00 | 62 | 1003.2 |
| 20260505202500 | 29 | 200 | 6.4 | 19.3 | 0.00 | 0.00 | 0.00 | 62 | 1003.3 |
| 20260505202401 | 29 | 207 | 6.4 | 19.3 | 0.00 | 0.00 | 0.00 | 62 | 1003.3 |
| 20260505202300 | 29 | 223 | 8.0 | 19.3 | 0.00 | 0.00 | 0.00 | 62 | 1003.3 |
| 20260505202101 | 29 | 201 | 8.0 | 19.3 | 0.00 | 0.00 | 0.00 | 62 | 1003.2 |
| 20260505202000 | 29 | 241 | 6.4 | 16.1 | 0.00 | 0.00 | 0.00 | 62 | 1003.3 |
| 20260505201900 | 29 | 236 | 6.4 | 16.1 | 0.00 | 0.00 | 0.00 | 63 | 1003.4 |
| 20260505201800 | 29 | 222 | 6.4 | 16.1 | 0.00 | 0.00 | 0.00 | 63 | 1003.4 |
| 20260505201700 | 29 | 219 | 4.8 | 16.1 | 0.00 | 0.00 | 0.00 | 63 | 1003.4 |
| 20260505201601 | 29 | 205 | 6.4 | 16.1 | 0.00 | 0.00 | 0.00 | 64 | 1003.4 |
| 20260505201500 | 29 | 224 | 8.0 | 16.1 | 0.00 | 0.00 | 0.00 | 62 | 1003.3 |
| 20260505201401 | 29 | 242 | 8.0 | 16.1 | 0.00 | 0.00 | 0.00 | 62 | 1003.3 |
| 20260505201201 | 29 | 230 | 8.0 | 24.1 | 0.00 | 0.00 | 0.00 | 61 | 1003.4 |
| 20260505201100 | 29 | 257 | 6.4 | 24.1 | 0.00 | 0.00 | 0.00 | 62 | 1003.4 |
| 20260505201001 | 29 | 215 | 6.4 | 24.1 | 0.00 | 0.00 | 0.00 | 63 | 1003.4 |
| 20260505200902 | 29 | 205 | 8.0 | 24.1 | 0.00 | 0.00 | 0.00 | 61 | 1003.4 |
| 20260505200801 | 29 | 224 | 8.0 | 24.1 | 0.00 | 0.00 | 0.00 | 62 | 1003.5 |
| 20260505200603 | 29 | 238 | 9.7 | 24.1 | 0.00 | 0.00 | 0.00 | 61 | 1003.4 |
| 20260505200500 | 29 | 211 | 11.3 | 24.1 | 0.00 | 0.00 | 0.00 | 61 | 1003.3 |
| 20260505200400 | 29 | 227 | 12.9 | 24.1 | 0.00 | 0.00 | 0.00 | 61 | 1003.3 |
| 20260505200301 | 29 | 212 | 12.9 | 24.1 | 0.00 | 0.00 | 0.00 | 61 | 1003.2 |
| 20260505200201 | 29 | 262 | 12.9 | 24.1 | 0.00 | 0.00 | 0.00 | 61 | 1003.4 |
| 20260505200100 | 29 | 223 | 11.3 | 24.1 | 0.00 | 0.00 | 0.00 | 61 | 1002.1 |
| 20260505200001 | 29 | 198 | 11.3 | 24.1 | 0.00 | 0.00 | 0.00 | 61 | 1003.4 |
| 20260505195900 | 29 | 215 | 9.7 | 17.7 | 0.00 | 0.00 | 0.00 | 61 | 1003.4 |
| 20260505195800 | 29 | 178 | 9.7 | 17.7 | 0.00 | 0.00 | 0.00 | 61 | 1003.5 |
| 20260505195700 | 29 | 215 | 9.7 | 24.1 | 0.00 | 0.00 | 0.00 | 62 | 1003.5 |
| 20260505195600 | 29 | 221 | 9.7 | 24.1 | 0.00 | 0.00 | 0.00 | 61 | 1003.5 |
| 20260505195500 | 29 | 204 | 8.0 | 22.5 | 0.00 | 0.00 | 0.00 | 61 | 1003.5 |
| 20260505195400 | 29 | 223 | 9.7 | 22.5 | 0.00 | 0.00 | 0.00 | 61 | 1003.4 |
| 20260505195300 | 29 | 221 | 9.7 | 22.5 | 0.00 | 0.00 | 0.00 | 60 | 1003.6 |
| 20260505195100 | 29 | 243 | 9.7 | 22.5 | 0.00 | 0.00 | 0.00 | 61 | 1003.5 |
| 20260505195000 | 29 | 186 | 8.0 | 22.5 | 0.00 | 0.00 | 0.00 | 63 | 1003.5 |
| 20260505194900 | 29 | 232 | 9.7 | 22.5 | 0.00 | 0.00 | 0.00 | 61 | 1003.4 |
| 20260505194759 | 29 | 188 | 9.7 | 22.5 | 0.00 | 0.00 | 0.00 | 63 | 1003.5 |
| 20260505194700 | 29 | 220 | 11.3 | 24.1 | 0.00 | 0.00 | 0.00 | 63 | 1003.5 |
| 20260505194619 | 29 | 251 | 9.7 | 19.3 | 0.00 | 0.00 | 0.00 | 63 | 1002.1 |
| 20260505194600 | 29 | 251 | 9.7 | 19.3 | 0.00 | 0.00 | 0.00 | 63 | 1003.4 |
| 20260505194459 | 29 | 235 | 11.3 | 19.3 | 0.00 | 0.00 | 0.00 | 63 | 1003.4 |
| 20260505194359 | 28 | 206 | 9.7 | 19.3 | 0.00 | 0.00 | 0.00 | 62 | 1003.5 |
| 20260505194259 | 28 | 213 | 11.3 | 19.3 | 0.00 | 0.00 | 0.00 | 63 | 1003.6 |
| 20260505194200 | 28 | 238 | 11.3 | 19.3 | 0.00 | 0.00 | 0.00 | 64 | 1003.5 |
| 20260505194000 | 28 | 228 | 9.7 | 20.9 | 0.00 | 0.00 | 0.00 | 63 | 1003.6 |
| 20260505193859 | 28 | 198 | 8.0 | 17.7 | 0.00 | 0.00 | 0.00 | 63 | 1003.6 |
| 20260505193759 | 28 | 218 | 9.7 | 17.7 | 0.00 | 0.00 | 0.00 | 62 | 1003.6 |
| 20260505193459 | 28 | 244 | 8.0 | 20.9 | 0.00 | 0.00 | 0.00 | 63 | 1003.6 |
| 20260505193359 | 28 | 238 | 8.0 | 20.9 | 0.00 | 0.00 | 0.00 | 63 | 1003.5 |
| 20260505193300 | 28 | 196 | 8.0 | 20.9 | 0.00 | 0.00 | 0.00 | 63 | 1003.6 |
| 20260505193200 | 28 | 248 | 6.4 | 20.9 | 0.00 | 0.00 | 0.00 | 62 | 1003.5 |
| 20260505193106 | 28 | 215 | 8.0 | 20.9 | 0.00 | 0.00 | 0.00 | 62 | 1002.2 |
| 20260505193059 | 28 | 215 | 8.0 | 20.9 | 0.00 | 0.00 | 0.00 | 62 | 1003.5 |
| 20260505192959 | 29 | 192 | 9.7 | 19.3 | 0.00 | 0.00 | 0.00 | 61 | 1003.5 |
| 20260505192800 | 29 | 202 | 8.0 | 19.3 | 0.00 | 0.00 | 0.00 | 62 | 1003.5 |
| 20260505192700 | 29 | 207 | 8.0 | 19.3 | 0.00 | 0.00 | 0.00 | 62 | 1003.5 |
| 20260505192601 | 29 | 207 | 6.4 | 19.3 | 0.00 | 0.00 | 0.00 | 61 | 1003.5 |
| 20260505192459 | 29 | 242 | 6.4 | 20.9 | 0.00 | 0.00 | 0.00 | 63 | 1003.5 |
| 20260505192401 | 29 | 219 | 6.4 | 20.9 | 0.00 | 0.00 | 0.00 | 63 | 1003.6 |
| 20260505192300 | 28 | 220 | 8.0 | 20.9 | 0.00 | 0.00 | 0.00 | 63 | 1003.5 |
| 20260505192159 | 28 | 246 | 11.3 | 20.9 | 0.00 | 0.00 | 0.00 | 62 | 1003.5 |
| 20260505192100 | 28 | 228 | 12.9 | 20.9 | 0.00 | 0.00 | 0.00 | 62 | 1003.6 |
| 20260505191901 | 28 | 226 | 11.3 | 20.9 | 0.00 | 0.00 | 0.00 | 62 | 1003.5 |
| 20260505191800 | 28 | 229 | 9.7 | 19.3 | 0.00 | 0.00 | 0.00 | 63 | 1003.5 |
| 20260505191701 | 28 | 242 | 9.7 | 19.3 | 0.00 | 0.00 | 0.00 | 63 | 1003.4 |
| 20260505191609 | 28 | 245 | 9.7 | 22.5 | 0.00 | 0.00 | 0.00 | 64 | 1002.1 |
| 20260505191601 | 28 | 241 | 11.3 | 22.5 | 0.00 | 0.00 | 0.00 | 64 | 1003.4 |
| 20260505191359 | 28 | 246 | 9.7 | 22.5 | 0.00 | 0.00 | 0.00 | 64 | 1003.2 |
| 20260505191300 | 28 | 201 | 11.3 | 22.5 | 0.00 | 0.00 | 0.00 | 62 | 1003.3 |
| 20260505191201 | 28 | 241 | 11.3 | 22.5 | 0.00 | 0.00 | 0.00 | 63 | 1003.4 |
| 20260505191100 | 28 | 268 | 9.7 | 22.5 | 0.00 | 0.00 | 0.00 | 65 | 1003.5 |
| 20260505190959 | 28 | 229 | 11.3 | 22.5 | 0.00 | 0.00 | 0.00 | 64 | 1003.3 |
| 20260505190900 | 28 | 223 | 11.3 | 22.5 | 0.00 | 0.00 | 0.00 | 64 | 1003.4 |
| 20260505190800 | 28 | 220 | 9.7 | 17.7 | 0.00 | 0.00 | 0.00 | 65 | 1003.4 |
| 20260505190701 | 28 | 203 | 8.0 | 16.1 | 0.00 | 0.00 | 0.00 | 65 | 1003.3 |
| 20260505190402 | 27 | 236 | 8.0 | 19.3 | 0.00 | 0.00 | 0.00 | 65 | 1003.4 |
| 20260505190300 | 27 | 221 | 9.7 | 19.3 | 0.00 | 0.00 | 0.00 | 65 | 1003.3 |
| 20260505190201 | 27 | 234 | 8.0 | 19.3 | 0.00 | 0.00 | 0.00 | 65 | 1003.4 |
| 20260505190100 | 27 | 191 | 8.0 | 19.3 | 0.00 | 0.00 | 0.00 | 65 | 1003.4 |
| 20260505190059 | 27 | 191 | 6.4 | 19.3 | 0.00 | 0.00 | 0.00 | 65 | 1002.1 |
| 20260505190000 | 27 | 216 | 8.0 | 19.3 | 0.00 | 0.00 | 0.00 | 65 | 1003.4 |
| 20260505185859 | 27 | 243 | 9.7 | 19.3 | 0.00 | 0.00 | 0.00 | 65 | 1003.6 |
| 20260505185759 | 27 | 215 | 9.7 | 19.3 | 0.00 | 0.00 | 0.00 | 65 | 1003.5 |
| 20260505185559 | 27 | 239 | 8.0 | 19.3 | 0.00 | 0.00 | 0.00 | 66 | 1003.5 |
| 20260505185458 | 27 | 184 | 8.0 | 19.3 | 0.00 | 0.00 | 0.00 | 66 | 1003.5 |
| 20260505185359 | 27 | 240 | 8.0 | 16.1 | 0.00 | 0.00 | 0.00 | 67 | 1003.6 |
| 20260505185259 | 27 | 229 | 8.0 | 16.1 | 0.00 | 0.00 | 0.00 | 67 | 1003.5 |
| 20260505185158 | 27 | 246 | 8.0 | 16.1 | 0.00 | 0.00 | 0.00 | 67 | 1003.5 |
| 20260505185058 | 27 | 248 | 6.4 | 22.5 | 0.00 | 0.00 | 0.00 | 67 | 1003.5 |
| 20260505184859 | 27 | 234 | 6.4 | 22.5 | 0.00 | 0.00 | 0.00 | 67 | 1003.5 |
| 20260505184800 | 27 | 238 | 8.0 | 22.5 | 0.00 | 0.00 | 0.00 | 66 | 1003.5 |
| 20260505184658 | 27 | 217 | 8.0 | 22.5 | 0.00 | 0.00 | 0.00 | 66 | 1003.5 |
| 20260505184558 | 27 | 242 | 8.0 | 22.5 | 0.00 | 0.00 | 0.00 | 67 | 1003.5 |
| 20260505184459 | 27 | 205 | 8.0 | 22.5 | 0.00 | 0.00 | 0.00 | 67 | 1003.5 |
| 20260505184258 | 27 | 227 | 9.7 | 20.9 | 0.00 | 0.00 | 0.00 | 66 | 1003.5 |
| 20260505184159 | 27 | 235 | 8.0 | 20.9 | 0.00 | 0.00 | 0.00 | 66 | 1003.4 |
| 20260505184058 | 27 | 197 | 6.4 | 19.3 | 0.00 | 0.00 | 0.00 | 66 | 1003.5 |
| 20260505183958 | 27 | 186 | 8.0 | 19.3 | 0.00 | 0.00 | 0.00 | 66 | 1003.5 |
| 20260505183758 | 27 | 191 | 11.3 | 19.3 | 0.00 | 0.00 | 0.00 | 66 | 1003.6 |
| 20260505183658 | 27 | 192 | 9.7 | 19.3 | 0.00 | 0.00 | 0.00 | 66 | 1003.6 |
| 20260505183559 | 27 | 227 | 8.0 | 19.3 | 0.00 | 0.00 | 0.00 | 66 | 1003.6 |
| 20260505183458 | 27 | 209 | 8.0 | 16.1 | 0.00 | 0.00 | 0.00 | 66 | 1003.6 |
| 20260505183159 | 27 | 235 | 8.0 | 16.1 | 0.00 | 0.00 | 0.00 | 66 | 1003.5 |
| 20260505183059 | 27 | 163 | 8.0 | 16.1 | 0.00 | 0.00 | 0.00 | 66 | 1003.5 |
| 20260505182957 | 27 | 236 | 6.4 | 20.9 | 0.00 | 0.00 | 0.00 | 67 | 1003.5 |
| 20260505182858 | 27 | 232 | 4.8 | 20.9 | 0.00 | 0.00 | 0.00 | 67 | 1003.5 |
| 20260505182757 | 26 | 190 | 6.4 | 19.3 | 0.00 | 0.00 | 0.00 | 68 | 1003.5 |
| 20260505182659 | 26 | 198 | 8.0 | 19.3 | 0.00 | 0.00 | 0.00 | 66 | 1003.5 |
| 20260505182559 | 26 | 236 | 8.0 | 19.3 | 0.00 | 0.00 | 0.00 | 66 | 1003.5 |
| 20260505182458 | 26 | 235 | 9.7 | 19.3 | 0.00 | 0.00 | 0.00 | 66 | 1003.5 |
| 20260505182358 | 26 | 269 | 9.7 | 19.3 | 0.00 | 0.00 | 0.00 | 66 | 1003.6 |
| 20260505182258 | 26 | 221 | 11.3 | 20.9 | 0.00 | 0.00 | 0.00 | 65 | 1003.7 |
| 20260505182158 | 26 | 221 | 9.7 | 20.9 | 0.00 | 0.00 | 0.00 | 66 | 1003.8 |
| 20260505181959 | 27 | 223 | 9.7 | 24.1 | 0.00 | 0.00 | 0.00 | 66 | 1003.6 |
| 20260505181757 | 27 | 217 | 11.3 | 25.7 | 0.00 | 0.00 | 0.00 | 66 | 1003.7 |
| 20260505181700 | 27 | 246 | 8.0 | 25.7 | 0.00 | 0.00 | 0.00 | 67 | 1003.6 |
| 20260505181558 | 27 | 257 | 6.4 | 25.7 | 0.00 | 0.00 | 0.00 | 67 | 1002.3 |
| 20260505181459 | 27 | 229 | 8.0 | 25.7 | 0.00 | 0.00 | 0.00 | 67 | 1003.6 |
| 20260505181359 | 27 | 229 | 9.7 | 25.7 | 0.00 | 0.00 | 0.00 | 66 | 1003.7 |
| 20260505181159 | 27 | 234 | 12.9 | 25.7 | 0.00 | 0.00 | 0.00 | 65 | 1003.6 |
| 20260505181058 | 27 | 235 | 14.5 | 25.7 | 0.00 | 0.00 | 0.00 | 65 | 1003.7 |
| 20260505180959 | 27 | 218 | 14.5 | 25.7 | 0.00 | 0.00 | 0.00 | 65 | 1003.5 |
| 20260505180858 | 27 | 248 | 12.9 | 22.5 | 0.00 | 0.00 | 0.00 | 65 | 1003.5 |
| 20260505180758 | 27 | 246 | 12.9 | 22.5 | 0.00 | 0.00 | 0.00 | 64 | 1003.6 |
| 20260505180458 | 27 | 202 | 8.0 | 22.5 | 0.00 | 0.00 | 0.00 | 65 | 1003.7 |
| 20260505180358 | 27 | 250 | 9.7 | 22.5 | 0.00 | 0.00 | 0.00 | 65 | 1003.6 |
| 20260505180258 | 27 | 181 | 12.9 | 22.5 | 0.00 | 0.00 | 0.00 | 64 | 1003.6 |
| 20260505180159 | 27 | 229 | 11.3 | 22.5 | 0.00 | 0.00 | 0.00 | 64 | 1003.6 |
| 20260505180100 | 27 | 218 | 11.3 | 22.5 | 0.00 | 0.00 | 0.00 | 65 | 1002.4 |
| 20260505180059 | 27 | 218 | 11.3 | 22.5 | 0.00 | 0.00 | 0.00 | 65 | 1003.7 |
| 20260505180001 | 27 | 188 | 9.7 | 22.5 | 0.00 | 0.00 | 0.00 | 68 | 1003.6 |
| 20260505175900 | 27 | 243 | 9.7 | 22.5 | 0.00 | 0.00 | 0.00 | 68 | 1003.6 |
| 20260505175801 | 27 | 190 | 8.0 | 19.3 | 0.00 | 0.00 | 0.00 | 68 | 1003.6 |
| 20260505175659 | 27 | 246 | 9.7 | 20.9 | 0.00 | 0.00 | 0.00 | 67 | 1003.6 |
| 20260505175600 | 27 | 198 | 9.7 | 22.5 | 0.00 | 0.00 | 0.00 | 67 | 1003.5 |
| 20260505175500 | 27 | 237 | 11.3 | 22.5 | 0.00 | 0.00 | 0.00 | 67 | 1003.4 |
| 20260505175401 | 27 | 229 | 9.7 | 22.5 | 0.00 | 0.00 | 0.00 | 67 | 1003.6 |
| 20260505175259 | 27 | 242 | 8.0 | 22.5 | 0.00 | 0.00 | 0.00 | 67 | 1003.5 |
| 20260505175101 | 27 | 242 | 8.0 | 22.5 | 0.00 | 0.00 | 0.00 | 69 | 1003.5 |
| 20260505175000 | 27 | 241 | 9.7 | 22.5 | 0.00 | 0.00 | 0.00 | 67 | 1003.5 |
| 20260505174859 | 26 | 194 | 11.3 | 22.5 | 0.00 | 0.00 | 0.00 | 68 | 1003.6 |
| 20260505174800 | 26 | 207 | 9.7 | 22.5 | 0.00 | 0.00 | 0.00 | 68 | 1003.7 |
| 20260505174700 | 26 | 236 | 8.0 | 22.5 | 0.00 | 0.00 | 0.00 | 68 | 1003.7 |
| 20260505174600 | 26 | 184 | 4.8 | 22.5 | 0.00 | 0.00 | 0.00 | 69 | 1003.6 |
| 20260505174559 | 26 | 184 | 4.8 | 22.5 | 0.00 | 0.00 | 0.00 | 69 | 1002.3 |
| 20260505174501 | 26 | 230 | 4.8 | 22.5 | 0.00 | 0.00 | 0.00 | 69 | 1003.6 |
| 20260505174358 | 26 | 186 | 6.4 | 22.5 | 0.00 | 0.00 | 0.00 | 69 | 1003.6 |
| 20260505174300 | 26 | 194 | 8.0 | 22.5 | 0.00 | 0.00 | 0.00 | 69 | 1003.6 |
| 20260505174159 | 26 | 204 | 9.7 | 22.5 | 0.00 | 0.00 | 0.00 | 68 | 1003.6 |
| 20260505174059 | 26 | 226 | 8.0 | 25.7 | 0.00 | 0.00 | 0.00 | 70 | 1003.6 |
| 20260505173959 | 26 | 225 | 8.0 | 25.7 | 0.00 | 0.00 | 0.00 | 70 | 1003.6 |
| 20260505173900 | 26 | 184 | 6.4 | 25.7 | 0.00 | 0.00 | 0.00 | 70 | 1003.7 |
| 20260505173759 | 26 | 215 | 6.4 | 25.7 | 0.00 | 0.00 | 0.00 | 70 | 1003.6 |
| 20260505173559 | 26 | 169 | 9.7 | 25.7 | 0.00 | 0.00 | 0.00 | 69 | 1003.5 |
| 20260505173459 | 26 | 196 | 9.7 | 25.7 | 0.00 | 0.00 | 0.00 | 68 | 1003.5 |
| 20260505173400 | 26 | 196 | 8.0 | 24.1 | 0.00 | 0.00 | 0.00 | 68 | 1003.5 |
| 20260505173259 | 26 | 204 | 9.7 | 24.1 | 0.00 | 0.00 | 0.00 | 68 | 1003.4 |
| 20260505173200 | 26 | 234 | 9.7 | 24.1 | 0.00 | 0.00 | 0.00 | 69 | 1003.5 |
| 20260505173113 | 26 | 229 | 9.7 | 24.1 | 0.00 | 0.00 | 0.00 | 68 | 1002.1 |
| 20260505173000 | 26 | 225 | 9.7 | 24.1 | 0.00 | 0.00 | 0.00 | 70 | 1003.4 |
| 20260505172900 | 26 | 211 | 9.7 | 24.1 | 0.00 | 0.00 | 0.00 | 70 | 1003.4 |
| 20260505172800 | 26 | 203 | 9.7 | 24.1 | 0.00 | 0.00 | 0.00 | 70 | 1003.3 |
| 20260505172659 | 26 | 186 | 9.7 | 24.1 | 0.00 | 0.00 | 0.00 | 70 | 1003.4 |
| 20260505172559 | 26 | 147 | 11.3 | 24.1 | 0.00 | 0.00 | 0.00 | 69 | 1003.4 |
| 20260505172500 | 26 | 210 | 11.3 | 24.1 | 0.00 | 0.00 | 0.00 | 69 | 1003.4 |
| 20260505172400 | 26 | 204 | 12.9 | 24.1 | 0.00 | 0.00 | 0.00 | 69 | 1003.5 |
| 20260505172200 | 26 | 210 | 12.9 | 25.7 | 0.00 | 0.00 | 0.00 | 70 | 1003.5 |
| 20260505172100 | 26 | 194 | 9.7 | 25.7 | 0.00 | 0.00 | 0.00 | 72 | 1003.6 |
| 20260505172000 | 26 | 188 | 8.0 | 25.7 | 0.00 | 0.00 | 0.00 | 72 | 1003.5 |
| 20260505171901 | 26 | 229 | 8.0 | 25.7 | 0.00 | 0.00 | 0.00 | 72 | 1003.5 |
| 20260505171801 | 25 | 218 | 11.3 | 25.7 | 0.00 | 0.00 | 0.00 | 72 | 1003.5 |
| 20260505171625 | 25 | 200 | 11.3 | 25.7 | 0.00 | 0.00 | 0.00 | 72 | 1002.3 |
| 20260505171600 | 25 | 200 | 11.3 | 25.7 | 0.00 | 0.00 | 0.00 | 72 | 1003.5 |
| 20260505171500 | 25 | 249 | 9.7 | 17.7 | 0.00 | 0.00 | 0.00 | 72 | 1003.6 |
| 20260505171400 | 25 | 219 | 8.0 | 16.1 | 0.00 | 0.00 | 0.00 | 74 | 1003.6 |
| 20260505171301 | 25 | 220 | 8.0 | 16.1 | 0.00 | 0.00 | 0.00 | 74 | 1003.7 |
| 20260505171201 | 25 | 220 | 6.4 | 16.1 | 0.00 | 0.00 | 0.00 | 74 | 1003.6 |
| 20260505171101 | 25 | 197 | 6.4 | 16.1 | 0.00 | 0.00 | 0.00 | 74 | 1003.5 |
| 20260505170959 | 25 | 186 | 6.4 | 16.1 | 0.00 | 0.00 | 0.00 | 74 | 1003.5 |
| 20260505170901 | 25 | 190 | 8.0 | 16.1 | 0.00 | 0.00 | 0.00 | 74 | 1003.5 |
| 20260505170701 | 25 | 236 | 8.0 | 19.3 | 0.00 | 0.00 | 0.00 | 74 | 1003.5 |
| 20260505170600 | 25 | 178 | 6.4 | 19.3 | 0.00 | 0.00 | 0.00 | 74 | 1003.5 |
| 20260505170459 | 25 | 206 | 4.8 | 19.3 | 0.00 | 0.00 | 0.00 | 75 | 1003.5 |
| 20260505170401 | 25 | 188 | 4.8 | 19.3 | 0.00 | 0.00 | 0.00 | 75 | 1003.5 |
| 20260505170200 | 25 | 236 | 6.4 | 19.3 | 0.00 | 0.00 | 0.00 | 75 | 1003.6 |
| 20260505170059 | 25 | 215 | 8.0 | 19.3 | 0.00 | 0.00 | 0.00 | 75 | 1003.6 |
| 20260505165958 | 25 | 184 | 8.0 | 19.3 | 0.00 | 0.00 | 0.00 | 75 | 1003.6 |
| 20260505165659 | 25 | 254 | 6.4 | 16.1 | 0.00 | 0.00 | 0.00 | 75 | 1003.6 |
| 20260505165559 | 24 | 189 | 6.4 | 16.1 | 0.00 | 0.00 | 0.00 | 75 | 1003.6 |
| 20260505165458 | 24 | 242 | 6.4 | 16.1 | 0.00 | 0.00 | 0.00 | 75 | 1003.6 |
| 20260505165358 | 24 | 171 | 4.8 | 17.7 | 0.00 | 0.00 | 0.00 | 75 | 1003.5 |
| 20260505165258 | 24 | 213 | 4.8 | 17.7 | 0.00 | 0.00 | 0.00 | 75 | 1003.5 |
| 20260505165158 | 24 | 240 | 6.4 | 17.7 | 0.00 | 0.00 | 0.00 | 75 | 1003.4 |
| 20260505165058 | 24 | 227 | 6.4 | 17.7 | 0.00 | 0.00 | 0.00 | 76 | 1003.4 |
| 20260505164958 | 24 | 182 | 6.4 | 17.7 | 0.00 | 0.00 | 0.00 | 76 | 1003.3 |
| 20260505164858 | 24 | 180 | 6.4 | 17.7 | 0.00 | 0.00 | 0.00 | 76 | 1003.3 |
| 20260505164758 | 24 | 198 | 6.4 | 17.7 | 0.00 | 0.00 | 0.00 | 76 | 1003.5 |
| 20260505164658 | 24 | 193 | 6.4 | 22.5 | 0.00 | 0.00 | 0.00 | 76 | 1003.5 |
| 20260505164605 | 24 | 250 | 6.4 | 22.5 | 0.00 | 0.00 | 0.00 | 76 | 1002.2 |
| 20260505164600 | 24 | 250 | 8.0 | 22.5 | 0.00 | 0.00 | 0.00 | 76 | 1003.5 |
| 20260505164458 | 24 | 219 | 8.0 | 22.5 | 0.00 | 0.00 | 0.00 | 76 | 1003.5 |
| 20260505164358 | 24 | 245 | 9.7 | 22.5 | 0.00 | 0.00 | 0.00 | 75 | 1003.5 |
| 20260505164259 | 24 | 202 | 9.7 | 22.5 | 0.00 | 0.00 | 0.00 | 75 | 1003.5 |
| 20260505164058 | 24 | 221 | 9.7 | 22.5 | 0.00 | 0.00 | 0.00 | 75 | 1003.4 |
| 20260505163958 | 24 | 220 | 11.3 | 22.5 | 0.00 | 0.00 | 0.00 | 75 | 1003.4 |
| 20260505163858 | 24 | 196 | 11.3 | 22.5 | 0.00 | 0.00 | 0.00 | 75 | 1003.4 |
| 20260505163759 | 24 | 198 | 11.3 | 22.5 | 0.00 | 0.00 | 0.00 | 75 | 1003.4 |
| 20260505163659 | 24 | 195 | 11.3 | 22.5 | 0.00 | 0.00 | 0.00 | 75 | 1003.3 |
| 20260505163458 | 24 | 192 | 8.0 | 19.3 | 0.00 | 0.00 | 0.00 | 75 | 1003.4 |
| 20260505163358 | 24 | 206 | 8.0 | 17.7 | 0.00 | 0.00 | 0.00 | 76 | 1003.6 |
| 20260505163158 | 24 | 214 | 9.7 | 17.7 | 0.00 | 0.00 | 0.00 | 75 | 1003.8 |
| 20260505163058 | 24 | 202 | 8.0 | 17.7 | 0.00 | 0.00 | 0.00 | 75 | 1002.5 |
| 20260505162958 | 24 | 199 | 8.0 | 17.7 | 0.00 | 0.00 | 0.00 | 75 | 1003.6 |
| 20260505162858 | 24 | 185 | 8.0 | 17.7 | 0.00 | 0.00 | 0.00 | 76 | 1003.5 |
| 20260505162759 | 24 | 186 | 8.0 | 17.7 | 0.00 | 0.00 | 0.00 | 76 | 1003.4 |
| 20260505162658 | 24 | 197 | 8.0 | 17.7 | 0.00 | 0.00 | 0.00 | 76 | 1003.4 |
| 20260505162558 | 24 | 180 | 6.4 | 17.7 | 0.00 | 0.00 | 0.00 | 76 | 1003.5 |
| 20260505162458 | 24 | 201 | 6.4 | 17.7 | 0.00 | 0.00 | 0.00 | 76 | 1003.6 |
| 20260505162359 | 24 | 198 | 6.4 | 17.7 | 0.00 | 0.00 | 0.00 | 75 | 1003.6 |
| 20260505162159 | 24 | 231 | 8.0 | 17.7 | 0.00 | 0.00 | 0.00 | 75 | 1003.1 |
| 20260505162058 | 24 | 206 | 8.0 | 17.7 | 0.00 | 0.00 | 0.00 | 75 | 1003.1 |
| 20260505162000 | 24 | 211 | 6.4 | 17.7 | 0.00 | 0.00 | 0.00 | 75 | 1003.2 |
| 20260505161858 | 24 | 213 | 9.7 | 22.5 | 0.00 | 0.00 | 0.00 | 75 | 1003.4 |
| 20260505161759 | 24 | 202 | 9.7 | 22.5 | 0.00 | 0.00 | 0.00 | 75 | 1003.6 |
| 20260505161658 | 24 | 191 | 9.7 | 22.5 | 0.00 | 0.00 | 0.00 | 75 | 1003.8 |
| 20260505161600 | 24 | 213 | 6.4 | 22.5 | 0.00 | 0.00 | 0.00 | 75 | 1002.6 |
| 20260505161558 | 24 | 213 | 6.4 | 22.5 | 0.00 | 0.00 | 0.00 | 75 | 1003.9 |
| 20260505161458 | 24 | 180 | 8.0 | 35.4 | 0.00 | 0.00 | 0.00 | 75 | 1003.9 |
| 20260505161358 | 24 | 198 | 8.0 | 35.4 | 0.00 | 0.00 | 0.00 | 75 | 1003.9 |
| 20260505161258 | 24 | 247 | 8.0 | 35.4 | 0.00 | 0.00 | 0.00 | 75 | 1003.8 |
| 20260505161200 | 24 | 207 | 11.3 | 35.4 | 0.00 | 0.00 | 0.00 | 75 | 1003.7 |
| 20260505161058 | 24 | 213 | 11.3 | 35.4 | 0.00 | 0.00 | 0.00 | 74 | 1003.5 |
| 20260505160758 | 24 | 230 | 11.3 | 35.4 | 0.00 | 0.00 | 0.00 | 74 | 1003.2 |
| 20260505160658 | 24 | 215 | 12.9 | 32.2 | 0.00 | 0.00 | 0.00 | 74 | 1003.1 |
| 20260505160558 | 24 | 187 | 12.9 | 27.4 | 0.00 | 0.00 | 0.00 | 74 | 1003.1 |
| 20260505160458 | 24 | 207 | 14.5 | 27.4 | 0.00 | 0.00 | 0.00 | 75 | 1003.1 |
| 20260505160359 | 24 | 201 | 11.3 | 27.4 | 0.00 | 0.00 | 0.00 | 75 | 1003.1 |
| 20260505160300 | 24 | 238 | 9.7 | 22.5 | 0.00 | 0.00 | 0.00 | 77 | 1003.2 |
| 20260505160159 | 24 | 197 | 8.0 | 19.3 | 0.00 | 0.00 | 0.00 | 77 | 1003.2 |
| 20260505153300 | 23 | 148 | 4.8 | 22.5 | 0.00 | 0.00 | 0.00 | 79 | 1003.4 |
| 20260505153159 | 23 | 227 | 6.4 | 25.7 | 0.00 | 0.00 | 0.00 | 78 | 1003.2 |
| 20260505153103 | 23 | 226 | 8.0 | 25.7 | 0.00 | 0.00 | 0.00 | 78 | 1002.0 |
| 20260505152959 | 23 | 190 | 9.7 | 25.7 | 0.00 | 0.00 | 0.00 | 77 | 1003.2 |
| 20260505152801 | 23 | 225 | 9.7 | 25.7 | 0.00 | 0.00 | 0.00 | 78 | 1003.2 |
| 20260505152600 | 23 | 183 | 9.7 | 25.7 | 0.00 | 0.00 | 0.00 | 78 | 1003.2 |
| 20260505152459 | 23 | 238 | 11.3 | 25.7 | 0.00 | 0.00 | 0.00 | 78 | 1003.1 |
| 20260505152400 | 23 | 251 | 11.3 | 25.7 | 0.00 | 0.00 | 0.00 | 78 | 1003.2 |
| 20260505152300 | 23 | 215 | 9.7 | 25.7 | 0.00 | 0.00 | 0.00 | 79 | 1003.1 |
| 20260505152001 | 23 | 191 | 11.3 | 25.7 | 0.00 | 0.00 | 0.00 | 78 | 1003.2 |
| 20260505151900 | 23 | 225 | 12.9 | 25.7 | 0.00 | 0.00 | 0.00 | 78 | 1003.3 |
| 20260505151759 | 23 | 191 | 12.9 | 27.4 | 0.00 | 0.00 | 0.00 | 78 | 1003.3 |
| 20260505151702 | 23 | 195 | 11.3 | 27.4 | 0.00 | 0.00 | 0.00 | 78 | 1003.3 |
| 20260505151600 | 23 | 186 | 8.0 | 27.4 | 0.00 | 0.00 | 0.00 | 78 | 1002.1 |
| 20260505151559 | 23 | 186 | 9.7 | 27.4 | 0.00 | 0.00 | 0.00 | 78 | 1003.4 |
| 20260505151500 | 23 | 225 | 11.3 | 27.4 | 0.00 | 0.00 | 0.00 | 79 | 1003.5 |
| 20260505151359 | 23 | 219 | 12.9 | 27.4 | 0.00 | 0.00 | 0.00 | 78 | 1003.4 |
| 20260505151259 | 23 | 215 | 14.5 | 27.4 | 0.00 | 0.00 | 0.00 | 78 | 1003.4 |
| 20260505151200 | 23 | 221 | 14.5 | 27.4 | 0.00 | 0.00 | 0.00 | 78 | 1003.5 |
| 20260505151059 | 23 | 232 | 14.5 | 27.4 | 0.00 | 0.00 | 0.00 | 78 | 1003.5 |
| 20260505151000 | 23 | 172 | 12.9 | 27.4 | 0.00 | 0.00 | 0.00 | 78 | 1003.5 |
| 20260505150859 | 23 | 209 | 11.3 | 29.0 | 0.00 | 0.00 | 0.00 | 78 | 1003.4 |
| 20260505150759 | 23 | 215 | 12.9 | 29.0 | 0.00 | 0.00 | 0.00 | 78 | 1003.6 |
| 20260505150701 | 23 | 226 | 16.1 | 29.0 | 0.00 | 0.00 | 0.00 | 78 | 1003.5 |
| 20260505150559 | 23 | 223 | 16.1 | 29.0 | 0.00 | 0.00 | 0.00 | 78 | 1003.5 |
| 20260505150459 | 23 | 205 | 17.7 | 29.0 | 0.00 | 0.00 | 0.00 | 78 | 1003.5 |
| 20260505150259 | 23 | 246 | 12.9 | 29.0 | 0.00 | 0.00 | 0.00 | 79 | 1003.5 |
| 20260505150200 | 23 | 184 | 11.3 | 25.7 | 0.00 | 0.00 | 0.00 | 79 | 1003.6 |
| 20260505150126 | 23 | 198 | 9.7 | 25.7 | 0.00 | 0.00 | 0.00 | 79 | 1002.3 |
| 20260505140600 | 22 | 198 | 6.4 | 25.7 | 0.00 | 0.00 | 0.00 | 82 | 1003.3 |
| 20260505140458 | 22 | 191 | 8.0 | 25.7 | 0.00 | 0.00 | 0.00 | 82 | 1003.2 |
| 20260505140359 | 22 | 184 | 9.7 | 25.7 | 0.00 | 0.00 | 0.00 | 82 | 1003.2 |
| 20260505140258 | 22 | 227 | 12.9 | 24.1 | 0.00 | 0.00 | 0.00 | 82 | 1003.2 |
| 20260505140158 | 22 | 196 | 12.9 | 24.1 | 0.00 | 0.00 | 0.00 | 82 | 1003.2 |
| 20260505130258 | 21 | 180 | 12.9 | 33.8 | 0.00 | 0.00 | 0.00 | 82 | 1003.1 |
| 20260505130157 | 21 | 191 | 12.9 | 33.8 | 0.00 | 0.00 | 0.00 | 82 | 1003.0 |
| 20260505130103 | 21 | 188 | 12.9 | 33.8 | 0.00 | 0.00 | 0.00 | 82 | 1002.0 |
| 20260505124957 | 21 | 199 | 11.3 | 24.1 | 0.00 | 0.00 | 0.00 | 82 | 1003.0 |
| 20260505124857 | 21 | 195 | 11.3 | 25.7 | 0.00 | 0.00 | 0.00 | 82 | 1003.1 |
| 20260505124657 | 21 | 193 | 8.0 | 25.7 | 0.00 | 0.00 | 0.00 | 82 | 1003.2 |
| 20260505124600 | 21 | 204 | 8.0 | 25.7 | 0.00 | 0.00 | 0.00 | 82 | 1001.8 |
| 20260505124558 | 21 | 204 | 9.7 | 25.7 | 0.00 | 0.00 | 0.00 | 82 | 1003.0 |
| 20260505124357 | 21 | 210 | 11.3 | 22.5 | 0.00 | 0.00 | 0.00 | 82 | 1002.9 |
| 20260505124257 | 21 | 195 | 9.7 | 22.5 | 0.00 | 0.00 | 0.00 | 82 | 1002.8 |
| 20260505124157 | 21 | 201 | 8.0 | 24.1 | 0.00 | 0.00 | 0.00 | 82 | 1002.9 |
| 20260505124057 | 21 | 173 | 8.0 | 24.1 | 0.00 | 0.00 | 0.00 | 82 | 1002.8 |
| 20260505123958 | 21 | 168 | 8.0 | 24.1 | 0.00 | 0.00 | 0.00 | 82 | 1002.9 |
| 20260505123757 | 21 | 203 | 11.3 | 24.1 | 0.00 | 0.00 | 0.00 | 82 | 1002.7 |
| 20260505123657 | 21 | 150 | 12.9 | 24.1 | 0.00 | 0.00 | 0.00 | 82 | 1002.8 |
| 20260505123557 | 21 | 178 | 11.3 | 24.1 | 0.00 | 0.00 | 0.00 | 82 | 1002.7 |
| 20260505123457 | 21 | 202 | 11.3 | 24.1 | 0.00 | 0.00 | 0.00 | 82 | 1002.9 |
| 20260505123356 | 21 | 207 | 11.3 | 24.1 | 0.00 | 0.00 | 0.00 | 82 | 1002.7 |
| 20260505123157 | 21 | 156 | 11.3 | 24.1 | 0.00 | 0.00 | 0.00 | 82 | 1002.7 |
| 20260505123102 | 21 | 197 | 11.3 | 24.1 | 0.00 | 0.00 | 0.00 | 82 | 1001.6 |
| 20260505122957 | 21 | 188 | 11.3 | 24.1 | 0.00 | 0.00 | 0.00 | 82 | 1002.8 |
| 20260505122857 | 21 | 201 | 9.7 | 24.1 | 0.00 | 0.00 | 0.00 | 82 | 1002.7 |
| 20260505122758 | 21 | 169 | 8.0 | 24.1 | 0.00 | 0.00 | 0.00 | 82 | 1002.7 |
| 20260505122658 | 21 | 166 | 8.0 | 24.1 | 0.00 | 0.00 | 0.00 | 82 | 1002.8 |
| 20260505122557 | 21 | 170 | 9.7 | 24.1 | 0.00 | 0.00 | 0.00 | 82 | 1002.7 |
| 20260505122457 | 21 | 180 | 9.7 | 24.1 | 0.00 | 0.00 | 0.00 | 82 | 1002.7 |
| 20260505122357 | 21 | 226 | 11.3 | 24.1 | 0.00 | 0.00 | 0.00 | 82 | 1002.7 |
| 20260505122257 | 21 | 211 | 9.7 | 24.1 | 0.00 | 0.00 | 0.00 | 82 | 1002.7 |
| 20260505122157 | 21 | 184 | 11.3 | 24.1 | 0.00 | 0.00 | 0.00 | 82 | 1002.6 |
| 20260505122057 | 21 | 182 | 12.9 | 24.1 | 0.00 | 0.00 | 0.00 | 82 | 1002.6 |
| 20260505121857 | 21 | 211 | 12.9 | 22.5 | 0.00 | 0.00 | 0.00 | 83 | 1002.5 |
| 20260505121757 | 21 | 181 | 11.3 | 22.5 | 0.00 | 0.00 | 0.00 | 83 | 1002.7 |
| 20260505121658 | 21 | 203 | 11.3 | 20.9 | 0.00 | 0.00 | 0.00 | 83 | 1002.6 |
| 20260505121624 | 21 | 213 | 9.7 | 20.9 | 0.00 | 0.00 | 0.00 | 83 | 1001.4 |
| 20260505121558 | 21 | 213 | 9.7 | 20.9 | 0.00 | 0.00 | 0.00 | 83 | 1002.6 |
| 20260505121457 | 21 | 194 | 9.7 | 17.7 | 0.00 | 0.00 | 0.00 | 83 | 1002.6 |
| 20260505121157 | 21 | 200 | 9.7 | 22.5 | 0.00 | 0.00 | 0.00 | 83 | 1002.5 |
| 20260505121057 | 21 | 181 | 9.7 | 22.5 | 0.00 | 0.00 | 0.00 | 83 | 1002.6 |
| 20260505120958 | 21 | 192 | 9.7 | 22.5 | 0.00 | 0.00 | 0.00 | 83 | 1002.5 |
| 20260505120858 | 21 | 183 | 9.7 | 22.5 | 0.00 | 0.00 | 0.00 | 83 | 1002.6 |
| 20260505120757 | 21 | 211 | 9.7 | 22.5 | 0.00 | 0.00 | 0.00 | 83 | 1002.6 |
| 20260505120659 | 21 | 238 | 9.7 | 22.5 | 0.00 | 0.00 | 0.00 | 83 | 1002.5 |
| 20260505120558 | 21 | 207 | 9.7 | 22.5 | 0.00 | 0.00 | 0.00 | 83 | 1002.5 |
| 20260505120457 | 21 | 228 | 11.3 | 22.5 | 0.00 | 0.00 | 0.00 | 83 | 1002.5 |
| 20260505120357 | 21 | 194 | 9.7 | 22.5 | 0.00 | 0.00 | 0.00 | 83 | 1002.5 |
| 20260505120257 | 21 | 184 | 9.7 | 22.5 | 0.00 | 0.00 | 0.00 | 83 | 1002.6 |
| 20260505120158 | 21 | 168 | 11.3 | 22.5 | 0.00 | 0.00 | 0.00 | 83 | 1002.5 |
| 20260505120058 | 21 | 174 | 9.7 | 22.5 | 0.00 | 0.00 | 0.00 | 83 | 1002.4 |
| 20260505115957 | 21 | 213 | 9.7 | 22.5 | 0.00 | 0.00 | 0.00 | 83 | 1002.5 |
| 20260505115657 | 21 | 193 | 11.3 | 19.3 | 0.00 | 0.00 | 0.00 | 83 | 1002.5 |
| 20260505115557 | 21 | 185 | 11.3 | 19.3 | 0.00 | 0.00 | 0.00 | 83 | 1002.4 |
| 20260505115457 | 21 | 190 | 9.7 | 19.3 | 0.00 | 0.00 | 0.00 | 83 | 1002.4 |
| 20260505115357 | 21 | 188 | 11.3 | 19.3 | 0.00 | 0.00 | 0.00 | 83 | 1002.4 |
| 20260505115257 | 21 | 202 | 11.3 | 19.3 | 0.00 | 0.00 | 0.00 | 83 | 1002.4 |
| 20260505115157 | 21 | 188 | 9.7 | 19.3 | 0.00 | 0.00 | 0.00 | 83 | 1002.4 |
| 20260505115058 | 21 | 196 | 8.0 | 19.3 | 0.00 | 0.00 | 0.00 | 83 | 1002.4 |
| 20260505114957 | 21 | 177 | 9.7 | 22.5 | 0.00 | 0.00 | 0.00 | 83 | 1002.4 |
| 20260505114857 | 21 | 210 | 11.3 | 22.5 | 0.00 | 0.00 | 0.00 | 83 | 1002.3 |
| 20260505114759 | 21 | 179 | 12.9 | 22.5 | 0.00 | 0.00 | 0.00 | 83 | 1002.4 |
| 20260505114658 | 21 | 211 | 11.3 | 22.5 | 0.00 | 0.00 | 0.00 | 83 | 1002.4 |
| 20260505114559 | 21 | 213 | 11.3 | 22.5 | 0.00 | 0.00 | 0.00 | 83 | 1002.5 |
| 20260505114557 | 21 | 213 | 9.7 | 22.5 | 0.00 | 0.00 | 0.00 | 83 | 1001.3 |
| 20260505114457 | 21 | 184 | 11.3 | 20.9 | 0.00 | 0.00 | 0.00 | 83 | 1002.5 |
| 20260505114357 | 21 | 197 | 11.3 | 20.9 | 0.00 | 0.00 | 0.00 | 83 | 1002.4 |
| 20260505114258 | 21 | 174 | 12.9 | 20.9 | 0.00 | 0.00 | 0.00 | 83 | 1002.4 |
| 20260505114157 | 21 | 192 | 11.3 | 19.3 | 0.00 | 0.00 | 0.00 | 83 | 1002.4 |
| 20260505113958 | 21 | 176 | 9.7 | 24.1 | 0.00 | 0.00 | 0.00 | 83 | 1002.5 |
| 20260505113857 | 21 | 178 | 11.3 | 24.1 | 0.00 | 0.00 | 0.00 | 83 | 1002.4 |
| 20260505113757 | 21 | 167 | 11.3 | 24.1 | 0.00 | 0.00 | 0.00 | 83 | 1002.4 |
| 20260505113658 | 21 | 192 | 9.7 | 24.1 | 0.00 | 0.00 | 0.00 | 83 | 1002.4 |
| 20260505113556 | 21 | 200 | 9.7 | 24.1 | 0.00 | 0.00 | 0.00 | 83 | 1002.4 |
| 20260505113457 | 21 | 220 | 9.7 | 24.1 | 0.00 | 0.00 | 0.00 | 83 | 1002.4 |
| 20260505113158 | 21 | 196 | 8.0 | 17.7 | 0.00 | 0.00 | 0.00 | 82 | 1002.5 |
| 20260505113103 | 21 | 182 | 6.4 | 17.7 | 0.00 | 0.00 | 0.00 | 82 | 1001.4 |
| 20260505113058 | 21 | 182 | 6.4 | 17.7 | 0.00 | 0.00 | 0.00 | 82 | 1002.5 |
| 20260505112958 | 21 | 210 | 4.8 | 17.7 | 0.00 | 0.00 | 0.00 | 82 | 1002.4 |
| 20260505112857 | 21 | 191 | 6.4 | 17.7 | 0.00 | 0.00 | 0.00 | 82 | 1002.5 |
| 20260505112757 | 21 | 202 | 6.4 | 17.7 | 0.00 | 0.00 | 0.00 | 82 | 1002.5 |
| 20260505112657 | 21 | 232 | 8.0 | 17.7 | 0.00 | 0.00 | 0.00 | 82 | 1002.5 |
| 20260505112558 | 21 | 178 | 8.0 | 17.7 | 0.00 | 0.00 | 0.00 | 82 | 1002.6 |
| 20260505112457 | 21 | 210 | 9.7 | 19.3 | 0.00 | 0.00 | 0.00 | 82 | 1002.6 |
| 20260505112357 | 21 | 184 | 9.7 | 19.3 | 0.00 | 0.00 | 0.00 | 82 | 1002.5 |
| 20260505112257 | 21 | 178 | 8.0 | 19.3 | 0.00 | 0.00 | 0.00 | 82 | 1002.5 |
| 20260505112158 | 21 | 184 | 8.0 | 19.3 | 0.00 | 0.00 | 0.00 | 82 | 1002.4 |
| 20260505112057 | 21 | 200 | 8.0 | 19.3 | 0.00 | 0.00 | 0.00 | 82 | 1002.4 |
| 20260505111957 | 21 | 178 | 8.0 | 19.3 | 0.00 | 0.00 | 0.00 | 82 | 1002.4 |
| 20260505111857 | 21 | 190 | 8.0 | 19.3 | 0.00 | 0.00 | 0.00 | 82 | 1002.4 |
| 20260505111758 | 21 | 182 | 8.0 | 22.5 | 0.00 | 0.00 | 0.00 | 82 | 1002.4 |
| 20260505111657 | 21 | 183 | 8.0 | 22.5 | 0.00 | 0.00 | 0.00 | 82 | 1002.4 |
| 20260505111557 | 21 | 148 | 8.0 | 22.5 | 0.00 | 0.00 | 0.00 | 82 | 1001.2 |
| 20260505111457 | 21 | 196 | 8.0 | 22.5 | 0.00 | 0.00 | 0.00 | 82 | 1002.3 |
| 20260505111357 | 21 | 202 | 8.0 | 22.5 | 0.00 | 0.00 | 0.00 | 82 | 1002.3 |
| 20260505111257 | 21 | 236 | 8.0 | 22.5 | 0.00 | 0.00 | 0.00 | 82 | 1002.2 |
| 20260505111057 | 21 | 185 | 12.9 | 22.5 | 0.00 | 0.00 | 0.00 | 82 | 1002.2 |
| 20260505110757 | 21 | 185 | 8.0 | 22.5 | 0.00 | 0.00 | 0.00 | 82 | 1002.3 |
| 20260505110658 | 21 | 202 | 8.0 | 22.5 | 0.00 | 0.00 | 0.00 | 82 | 1002.4 |
| 20260505110557 | 21 | 196 | 8.0 | 22.5 | 0.00 | 0.00 | 0.00 | 82 | 1002.3 |
| 20260505110458 | 21 | 195 | 8.0 | 22.5 | 0.00 | 0.00 | 0.00 | 82 | 1002.3 |
| 20260505110358 | 21 | 174 | 9.7 | 22.5 | 0.00 | 0.00 | 0.00 | 82 | 1002.2 |
| 20260505110257 | 21 | 194 | 9.7 | 22.5 | 0.00 | 0.00 | 0.00 | 82 | 1002.2 |
| 20260505110157 | 21 | 184 | 11.3 | 24.1 | 0.00 | 0.00 | 0.00 | 82 | 1002.3 |
| 20260505102157 | 21 | 192 | 8.0 | 22.5 | 0.00 | 0.00 | 0.00 | 81 | 1002.7 |
| 20260505102057 | 21 | 201 | 9.7 | 22.5 | 0.00 | 0.00 | 0.00 | 81 | 1002.7 |
| 20260505101958 | 21 | 192 | 9.7 | 22.5 | 0.00 | 0.00 | 0.00 | 81 | 1002.6 |
| 20260505101856 | 21 | 201 | 11.3 | 22.5 | 0.00 | 0.00 | 0.00 | 81 | 1002.7 |
| 20260505101757 | 21 | 218 | 11.3 | 22.5 | 0.00 | 0.00 | 0.00 | 81 | 1002.6 |
| 20260505101700 | 21 | 177 | 9.7 | 22.5 | 0.00 | 0.00 | 0.00 | 81 | 1002.7 |
| 20260505101559 | 21 | 217 | 9.7 | 22.5 | 0.00 | 0.00 | 0.00 | 81 | 1001.6 |
| 20260505101557 | 21 | 217 | 11.3 | 22.5 | 0.00 | 0.00 | 0.00 | 81 | 1002.7 |
| 20260505101457 | 21 | 190 | 11.3 | 22.5 | 0.00 | 0.00 | 0.00 | 81 | 1002.6 |
| 20260505101357 | 21 | 195 | 11.3 | 22.5 | 0.00 | 0.00 | 0.00 | 81 | 1002.6 |
| 20260505101057 | 21 | 233 | 11.3 | 22.5 | 0.00 | 0.00 | 0.00 | 81 | 1002.5 |
| 20260505100957 | 21 | 200 | 12.9 | 22.5 | 0.00 | 0.00 | 0.00 | 81 | 1002.7 |
| 20260505100757 | 21 | 200 | 11.3 | 27.4 | 0.00 | 0.00 | 0.00 | 81 | 1002.7 |
| 20260505100657 | 21 | 184 | 9.7 | 27.4 | 0.00 | 0.00 | 0.00 | 81 | 1002.6 |
| 20260505100557 | 21 | 213 | 9.7 | 27.4 | 0.00 | 0.00 | 0.00 | 81 | 1002.5 |
| 20260505100458 | 21 | 199 | 12.9 | 27.4 | 0.00 | 0.00 | 0.00 | 82 | 1002.5 |
| 20260505100357 | 21 | 196 | 12.9 | 27.4 | 0.00 | 0.00 | 0.00 | 82 | 1002.5 |
| 20260505100257 | 21 | 213 | 12.9 | 27.4 | 0.00 | 0.00 | 0.00 | 82 | 1002.6 |
| 20260505100136 | 21 | 201 | 12.9 | 27.4 | 0.00 | 0.00 | 0.00 | 82 | 1001.4 |
| 20260505100057 | 21 | 201 | 14.5 | 27.4 | 0.00 | 0.00 | 0.00 | 82 | 1002.5 |
| 20260505095958 | 21 | 163 | 11.3 | 27.4 | 0.00 | 0.00 | 0.00 | 82 | 1002.3 |
| 20260505095858 | 21 | 202 | 11.3 | 22.5 | 0.00 | 0.00 | 0.00 | 82 | 1002.4 |
| 20260505095757 | 21 | 181 | 11.3 | 22.5 | 0.00 | 0.00 | 0.00 | 82 | 1002.4 |
| 20260505095658 | 21 | 213 | 11.3 | 22.5 | 0.00 | 0.00 | 0.00 | 82 | 1002.5 |
| 20260505095457 | 21 | 210 | 9.7 | 22.5 | 0.00 | 0.00 | 0.00 | 82 | 1002.5 |
| 20260505095258 | 21 | 225 | 11.3 | 22.5 | 0.00 | 0.00 | 0.00 | 82 | 1002.4 |
| 20260505095058 | 21 | 200 | 14.5 | 22.5 | 0.00 | 0.00 | 0.00 | 82 | 1002.4 |
| 20260505094957 | 21 | 225 | 12.9 | 22.5 | 0.00 | 0.00 | 0.00 | 82 | 1002.4 |
| 20260505094857 | 21 | 182 | 11.3 | 22.5 | 0.00 | 0.00 | 0.00 | 82 | 1002.4 |
| 20260505094657 | 21 | 167 | 11.3 | 22.5 | 0.00 | 0.00 | 0.00 | 82 | 1002.4 |
| 20260505094559 | 21 | 175 | 11.3 | 22.5 | 0.00 | 0.00 | 0.00 | 82 | 1002.3 |
| 20260505094557 | 21 | 175 | 11.3 | 22.5 | 0.00 | 0.00 | 0.00 | 82 | 1001.2 |
| 20260505094457 | 21 | 177 | 11.3 | 22.5 | 0.00 | 0.00 | 0.00 | 81 | 1002.4 |
| 20260505094358 | 21 | 176 | 11.3 | 22.5 | 0.00 | 0.00 | 0.00 | 81 | 1002.4 |
| 20260505094259 | 21 | 154 | 12.9 | 22.5 | 0.00 | 0.00 | 0.00 | 81 | 1002.4 |
| 20260505093958 | 21 | 195 | 11.3 | 27.4 | 0.00 | 0.00 | 0.00 | 81 | 1002.4 |
| 20260505093859 | 21 | 227 | 11.3 | 27.4 | 0.00 | 0.00 | 0.00 | 81 | 1002.5 |
| 20260505093758 | 21 | 194 | 12.9 | 29.0 | 0.00 | 0.00 | 0.00 | 81 | 1002.6 |
| 20260505093658 | 21 | 193 | 14.5 | 29.0 | 0.00 | 0.00 | 0.00 | 81 | 1002.6 |
| 20260505093558 | 21 | 191 | 12.9 | 29.0 | 0.00 | 0.00 | 0.00 | 81 | 1002.5 |
| 20260505093458 | 21 | 198 | 14.5 | 29.0 | 0.00 | 0.00 | 0.00 | 81 | 1002.5 |
| 20260505093357 | 21 | 188 | 14.5 | 29.0 | 0.00 | 0.00 | 0.00 | 81 | 1002.5 |
| 20260505093257 | 21 | 173 | 14.5 | 29.0 | 0.00 | 0.00 | 0.00 | 81 | 1002.6 |
| 20260505093158 | 21 | 191 | 12.9 | 29.0 | 0.00 | 0.00 | 0.00 | 81 | 1002.6 |
| 20260505093059 | 21 | 180 | 16.1 | 29.0 | 0.00 | 0.00 | 0.00 | 81 | 1002.6 |
| 20260505093057 | 21 | 180 | 14.5 | 29.0 | 0.00 | 0.00 | 0.00 | 81 | 1001.5 |
| 20260505092958 | 21 | 186 | 14.5 | 29.0 | 0.00 | 0.00 | 0.00 | 81 | 1002.5 |
| 20260505092857 | 21 | 187 | 16.1 | 27.4 | 0.00 | 0.00 | 0.00 | 81 | 1002.7 |
| 20260505092756 | 21 | 205 | 14.5 | 27.4 | 0.00 | 0.00 | 0.00 | 81 | 1002.6 |
| 20260505092657 | 21 | 229 | 14.5 | 27.4 | 0.00 | 0.00 | 0.00 | 81 | 1002.7 |
| 20260505092557 | 21 | 196 | 12.9 | 27.4 | 0.00 | 0.00 | 0.00 | 81 | 1002.7 |
| 20260505092457 | 21 | 205 | 12.9 | 27.4 | 0.00 | 0.00 | 0.00 | 81 | 1002.8 |
| 20260505092257 | 21 | 197 | 9.7 | 27.4 | 0.00 | 0.00 | 0.00 | 81 | 1002.7 |
| 20260505092158 | 21 | 251 | 11.3 | 27.4 | 0.00 | 0.00 | 0.00 | 81 | 1002.6 |
| 20260505092058 | 21 | 200 | 11.3 | 27.4 | 0.00 | 0.00 | 0.00 | 81 | 1002.7 |
| 20260505091957 | 21 | 187 | 11.3 | 27.4 | 0.00 | 0.00 | 0.00 | 81 | 1002.6 |
| 20260505091858 | 21 | 207 | 9.7 | 24.1 | 0.00 | 0.00 | 0.00 | 81 | 1002.7 |
| 20260505091758 | 21 | 177 | 11.3 | 24.1 | 0.00 | 0.00 | 0.00 | 81 | 1002.6 |
| 20260505091657 | 21 | 192 | 11.3 | 24.1 | 0.00 | 0.00 | 0.00 | 81 | 1002.6 |
| 20260505091617 | 21 | 202 | 11.3 | 25.7 | 0.00 | 0.00 | 0.00 | 81 | 1001.6 |
| 20260505091458 | 21 | 162 | 12.9 | 25.7 | 0.00 | 0.00 | 0.00 | 81 | 1002.6 |
| 20260505091357 | 21 | 186 | 12.9 | 25.7 | 0.00 | 0.00 | 0.00 | 81 | 1002.7 |
| 20260505091257 | 21 | 206 | 9.7 | 25.7 | 0.00 | 0.00 | 0.00 | 81 | 1002.8 |
| 20260505091157 | 21 | 167 | 8.0 | 25.7 | 0.00 | 0.00 | 0.00 | 81 | 1002.7 |
| 20260505091058 | 21 | 207 | 9.7 | 25.7 | 0.00 | 0.00 | 0.00 | 81 | 1002.8 |
| 20260505090957 | 21 | 186 | 11.3 | 25.7 | 0.00 | 0.00 | 0.00 | 81 | 1002.7 |
| 20260505090458 | 21 | 147 | 12.9 | 22.5 | 0.00 | 0.00 | 0.00 | 81 | 1002.8 |
| 20260505090257 | 21 | 209 | 11.3 | 22.5 | 0.00 | 0.00 | 0.00 | 81 | 1002.8 |
| 20260505090158 | 21 | 223 | 11.3 | 19.3 | 0.00 | 0.00 | 0.00 | 81 | 1002.9 |
| 20260505090058 | 21 | 252 | 9.7 | 22.5 | 0.00 | 0.00 | 0.00 | 81 | 1002.8 |
| 20260505085956 | 21 | 199 | 9.7 | 27.4 | 0.00 | 0.00 | 0.00 | 81 | 1002.8 |
| 20260505085857 | 21 | 238 | 8.0 | 27.4 | 0.00 | 0.00 | 0.00 | 81 | 1002.8 |
| 20260505085656 | 21 | 180 | 8.0 | 27.4 | 0.00 | 0.00 | 0.00 | 80 | 1002.8 |
| 20260505085556 | 21 | 189 | 9.7 | 27.4 | 0.00 | 0.00 | 0.00 | 80 | 1002.8 |
| 20260505085456 | 21 | 192 | 11.3 | 27.4 | 0.00 | 0.00 | 0.00 | 80 | 1002.8 |
| 20260505085356 | 21 | 186 | 11.3 | 27.4 | 0.00 | 0.00 | 0.00 | 80 | 1002.8 |
| 20260505085256 | 21 | 190 | 12.9 | 27.4 | 0.00 | 0.00 | 0.00 | 80 | 1002.7 |
| 20260505085156 | 21 | 176 | 11.3 | 27.4 | 0.00 | 0.00 | 0.00 | 80 | 1002.8 |
| 20260505084956 | 21 | 179 | 11.3 | 29.0 | 0.00 | 0.00 | 0.00 | 80 | 1002.7 |
| 20260505084856 | 21 | 222 | 11.3 | 29.0 | 0.00 | 0.00 | 0.00 | 80 | 1002.6 |
| 20260505084757 | 21 | 181 | 11.3 | 29.0 | 0.00 | 0.00 | 0.00 | 80 | 1002.6 |
| 20260505084557 | 21 | 223 | 11.3 | 29.0 | 0.00 | 0.00 | 0.00 | 80 | 1001.6 |
| 20260505084456 | 21 | 171 | 9.7 | 29.0 | 0.00 | 0.00 | 0.00 | 80 | 1002.7 |
| 20260505084357 | 21 | 202 | 11.3 | 29.0 | 0.00 | 0.00 | 0.00 | 80 | 1002.6 |
| 20260505084156 | 21 | 193 | 12.9 | 29.0 | 0.00 | 0.00 | 0.00 | 80 | 1002.7 |
| 20260505083956 | 21 | 192 | 8.0 | 25.7 | 0.00 | 0.00 | 0.00 | 80 | 1002.8 |
| 20260505083857 | 21 | 196 | 8.0 | 25.7 | 0.00 | 0.00 | 0.00 | 80 | 1002.7 |
| 20260505083656 | 21 | 218 | 9.7 | 25.7 | 0.00 | 0.00 | 0.00 | 80 | 1002.8 |
| 20260505083556 | 21 | 190 | 11.3 | 25.7 | 0.00 | 0.00 | 0.00 | 80 | 1002.7 |
| 20260505083456 | 21 | 195 | 11.3 | 19.3 | 0.00 | 0.00 | 0.00 | 80 | 1002.7 |
| 20260505083356 | 21 | 186 | 9.7 | 19.3 | 0.00 | 0.00 | 0.00 | 80 | 1002.7 |
| 20260505083257 | 21 | 182 | 8.0 | 17.7 | 0.00 | 0.00 | 0.00 | 80 | 1002.8 |
| 20260505083157 | 21 | 196 | 8.0 | 17.7 | 0.00 | 0.00 | 0.00 | 80 | 1002.7 |
| 20260505083056 | 21 | 202 | 8.0 | 17.7 | 0.00 | 0.00 | 0.00 | 80 | 1001.6 |
| 20260505082958 | 21 | 200 | 8.0 | 17.7 | 0.00 | 0.00 | 0.00 | 80 | 1002.7 |
| 20260505082856 | 21 | 219 | 8.0 | 17.7 | 0.00 | 0.00 | 0.00 | 80 | 1002.7 |
| 20260505082756 | 21 | 161 | 9.7 | 17.7 | 0.00 | 0.00 | 0.00 | 80 | 1002.7 |
| 20260505082657 | 21 | 198 | 9.7 | 17.7 | 0.00 | 0.00 | 0.00 | 80 | 1002.7 |
| 20260505082558 | 21 | 197 | 9.7 | 17.7 | 0.00 | 0.00 | 0.00 | 80 | 1002.8 |
| 20260505082456 | 21 | 190 | 8.0 | 17.7 | 0.00 | 0.00 | 0.00 | 80 | 1002.8 |
| 20260505082357 | 21 | 205 | 8.0 | 22.5 | 0.00 | 0.00 | 0.00 | 80 | 1002.8 |
| 20260505082256 | 21 | 179 | 6.4 | 22.5 | 0.00 | 0.00 | 0.00 | 80 | 1002.8 |
| 20260505082057 | 21 | 202 | 8.0 | 22.5 | 0.00 | 0.00 | 0.00 | 79 | 1002.8 |
| 20260505081955 | 21 | 194 | 8.0 | 22.5 | 0.00 | 0.00 | 0.00 | 79 | 1002.8 |
| 20260505081857 | 21 | 207 | 9.7 | 22.5 | 0.00 | 0.00 | 0.00 | 79 | 1002.8 |
| 20260505081758 | 21 | 242 | 12.9 | 22.5 | 0.00 | 0.00 | 0.00 | 79 | 1002.8 |
| 20260505081656 | 21 | 194 | 12.9 | 22.5 | 0.00 | 0.00 | 0.00 | 79 | 1002.9 |
| 20260505081556 | 21 | 194 | 12.9 | 22.5 | 0.00 | 0.00 | 0.00 | 79 | 1002.9 |
| 20260505081457 | 21 | 150 | 11.3 | 22.5 | 0.00 | 0.00 | 0.00 | 79 | 1002.8 |
| 20260505081357 | 21 | 212 | 9.7 | 22.5 | 0.00 | 0.00 | 0.00 | 79 | 1002.9 |
| 20260505081156 | 21 | 192 | 6.4 | 17.7 | 0.00 | 0.00 | 0.00 | 79 | 1002.9 |
| 20260505081057 | 21 | 187 | 9.7 | 22.5 | 0.00 | 0.00 | 0.00 | 79 | 1002.9 |
| 20260505080956 | 21 | 197 | 9.7 | 22.5 | 0.00 | 0.00 | 0.00 | 79 | 1003.0 |
| 20260505080757 | 21 | 169 | 9.7 | 22.5 | 0.00 | 0.00 | 0.00 | 79 | 1003.0 |
| 20260505080657 | 21 | 185 | 9.7 | 22.5 | 0.00 | 0.00 | 0.00 | 79 | 1003.0 |
| 20260505080556 | 21 | 194 | 9.7 | 22.5 | 0.00 | 0.00 | 0.00 | 79 | 1003.1 |
| 20260505080356 | 21 | 199 | 9.7 | 22.5 | 0.00 | 0.00 | 0.00 | 79 | 1003.0 |
| 20260505080257 | 21 | 186 | 9.7 | 22.5 | 0.00 | 0.00 | 0.00 | 79 | 1003.0 |
| 20260505080158 | 21 | 192 | 11.3 | 17.7 | 0.00 | 0.00 | 0.00 | 79 | 1003.1 |
| 20260505080056 | 21 | 208 | 11.3 | 19.3 | 0.00 | 0.00 | 0.00 | 79 | 1002.0 |
| 20260505075957 | 21 | 197 | 9.7 | 19.3 | 0.00 | 0.00 | 0.00 | 78 | 1003.0 |
| 20260505075856 | 21 | 163 | 9.7 | 19.3 | 0.00 | 0.00 | 0.00 | 78 | 1003.1 |
| 20260505075757 | 21 | 192 | 9.7 | 19.3 | 0.00 | 0.00 | 0.00 | 78 | 1003.1 |
| 20260505075656 | 21 | 165 | 9.7 | 19.3 | 0.00 | 0.00 | 0.00 | 78 | 1003.1 |
| 20260505075556 | 21 | 181 | 8.0 | 19.3 | 0.00 | 0.00 | 0.00 | 78 | 1003.1 |
| 20260505075456 | 21 | 187 | 9.7 | 19.3 | 0.00 | 0.00 | 0.00 | 78 | 1003.1 |
| 20260505075359 | 21 | 235 | 9.7 | 19.3 | 0.00 | 0.00 | 0.00 | 78 | 1003.1 |
| 20260505075256 | 21 | 190 | 8.0 | 19.3 | 0.00 | 0.00 | 0.00 | 78 | 1003.1 |
| 20260505075158 | 21 | 194 | 8.0 | 19.3 | 0.00 | 0.00 | 0.00 | 78 | 1003.1 |
| 20260505075057 | 21 | 210 | 8.0 | 19.3 | 0.00 | 0.00 | 0.00 | 78 | 1003.1 |
| 20260505074956 | 21 | 187 | 9.7 | 19.3 | 0.00 | 0.00 | 0.00 | 78 | 1003.2 |
| 20260505074857 | 21 | 184 | 11.3 | 19.3 | 0.00 | 0.00 | 0.00 | 78 | 1003.1 |
| 20260505074757 | 21 | 184 | 11.3 | 19.3 | 0.00 | 0.00 | 0.00 | 78 | 1003.2 |
| 20260505074658 | 21 | 190 | 9.7 | 22.5 | 0.00 | 0.00 | 0.00 | 78 | 1003.2 |
| 20260505074556 | 21 | 223 | 8.0 | 22.5 | 0.00 | 0.00 | 0.00 | 78 | 1002.2 |
| 20260505074456 | 21 | 189 | 8.0 | 22.5 | 0.00 | 0.00 | 0.00 | 78 | 1003.3 |
| 20260505074256 | 21 | 205 | 8.0 | 22.5 | 0.00 | 0.00 | 0.00 | 78 | 1003.4 |
| 20260505074056 | 21 | 190 | 9.7 | 22.5 | 0.00 | 0.00 | 0.00 | 78 | 1003.4 |
| 20260505073956 | 21 | 196 | 9.7 | 22.5 | 0.00 | 0.00 | 0.00 | 78 | 1003.4 |
| 20260505073856 | 21 | 192 | 9.7 | 17.7 | 0.00 | 0.00 | 0.00 | 78 | 1003.4 |
| 20260505073757 | 21 | 186 | 9.7 | 17.7 | 0.00 | 0.00 | 0.00 | 78 | 1003.3 |
| 20260505073656 | 21 | 200 | 9.7 | 17.7 | 0.00 | 0.00 | 0.00 | 78 | 1003.4 |
| 20260505073456 | 21 | 172 | 9.7 | 17.7 | 0.00 | 0.00 | 0.00 | 78 | 1003.4 |
| 20260505073356 | 21 | 193 | 8.0 | 16.1 | 0.00 | 0.00 | 0.00 | 78 | 1003.5 |
| 20260505073158 | 21 | 186 | 8.0 | 16.1 | 0.00 | 0.00 | 0.00 | 78 | 1003.4 |
| 20260505073101 | 21 | 184 | 6.4 | 16.1 | 0.00 | 0.00 | 0.00 | 77 | 1002.4 |
| 20260505073056 | 21 | 184 | 8.0 | 16.1 | 0.00 | 0.00 | 0.00 | 77 | 1003.4 |
| 20260505072957 | 21 | 198 | 8.0 | 14.5 | 0.00 | 0.00 | 0.00 | 77 | 1003.5 |
| 20260505072855 | 21 | 172 | 8.0 | 17.7 | 0.00 | 0.00 | 0.00 | 77 | 1003.6 |
| 20260505072656 | 21 | 182 | 8.0 | 17.7 | 0.00 | 0.00 | 0.00 | 77 | 1003.5 |
| 20260505072557 | 21 | 173 | 8.0 | 17.7 | 0.00 | 0.00 | 0.00 | 77 | 1003.5 |
| 20260505072457 | 21 | 199 | 6.4 | 17.7 | 0.00 | 0.00 | 0.00 | 77 | 1003.6 |
| 20260505072356 | 21 | 178 | 6.4 | 17.7 | 0.00 | 0.00 | 0.00 | 77 | 1003.6 |
| 20260505072258 | 21 | 204 | 8.0 | 17.7 | 0.00 | 0.00 | 0.00 | 77 | 1003.6 |
| 20260505072156 | 21 | 204 | 8.0 | 17.7 | 0.00 | 0.00 | 0.00 | 77 | 1003.6 |
| 20260505072057 | 21 | 209 | 8.0 | 24.1 | 0.00 | 0.00 | 0.00 | 77 | 1003.7 |
| 20260505071957 | 21 | 179 | 9.7 | 24.1 | 0.00 | 0.00 | 0.00 | 77 | 1003.7 |
| 20260505071856 | 21 | 169 | 9.7 | 24.1 | 0.00 | 0.00 | 0.00 | 77 | 1003.7 |
| 20260505071757 | 21 | 212 | 11.3 | 24.1 | 0.00 | 0.00 | 0.00 | 77 | 1003.8 |
| 20260505071657 | 21 | 197 | 9.7 | 24.1 | 0.00 | 0.00 | 0.00 | 77 | 1003.7 |
| 20260505071557 | 21 | 188 | 9.7 | 24.1 | 0.00 | 0.00 | 0.00 | 77 | 1003.7 |
| 20260505071357 | 21 | 216 | 9.7 | 17.7 | 0.00 | 0.00 | 0.00 | 77 | 1003.8 |
| 20260505071256 | 21 | 202 | 9.7 | 17.7 | 0.00 | 0.00 | 0.00 | 77 | 1003.8 |
| 20260505071057 | 21 | 215 | 9.7 | 17.7 | 0.00 | 0.00 | 0.00 | 77 | 1003.7 |
| 20260505070956 | 21 | 192 | 9.7 | 22.5 | 0.00 | 0.00 | 0.00 | 77 | 1003.8 |
| 20260505070857 | 21 | 164 | 9.7 | 22.5 | 0.00 | 0.00 | 0.00 | 77 | 1003.8 |
| 20260505070757 | 21 | 184 | 11.3 | 22.5 | 0.00 | 0.00 | 0.00 | 77 | 1003.8 |
| 20260505070656 | 21 | 182 | 9.7 | 22.5 | 0.00 | 0.00 | 0.00 | 77 | 1003.8 |
| 20260505070556 | 21 | 182 | 8.0 | 22.5 | 0.00 | 0.00 | 0.00 | 77 | 1003.8 |
| 20260505070456 | 21 | 198 | 9.7 | 22.5 | 0.00 | 0.00 | 0.00 | 77 | 1003.8 |
| 20260505070357 | 21 | 176 | 8.0 | 22.5 | 0.00 | 0.00 | 0.00 | 77 | 1003.8 |
| 20260505070256 | 21 | 199 | 9.7 | 22.5 | 0.00 | 0.00 | 0.00 | 77 | 1003.8 |
| 20260505070156 | 21 | 187 | 8.0 | 22.5 | 0.00 | 0.00 | 0.00 | 77 | 1003.8 |
| 20260505070058 | 21 | 194 | 8.0 | 22.5 | 0.00 | 0.00 | 0.00 | 77 | 1002.8 |
| 20260505070056 | 21 | 194 | 8.0 | 22.5 | 0.00 | 0.00 | 0.00 | 77 | 1003.9 |
| 20260505065957 | 21 | 172 | 9.7 | 22.5 | 0.00 | 0.00 | 0.00 | 77 | 1003.8 |
| 20260505065856 | 21 | 188 | 11.3 | 22.5 | 0.00 | 0.00 | 0.00 | 77 | 1003.9 |
| 20260505065757 | 21 | 177 | 11.3 | 22.5 | 0.00 | 0.00 | 0.00 | 77 | 1003.8 |
| 20260505065656 | 21 | 186 | 12.9 | 22.5 | 0.00 | 0.00 | 0.00 | 77 | 1003.9 |
| 20260505065555 | 21 | 175 | 12.9 | 22.5 | 0.00 | 0.00 | 0.00 | 77 | 1003.8 |
| 20260505065457 | 21 | 186 | 9.7 | 22.5 | 0.00 | 0.00 | 0.00 | 77 | 1003.8 |
| 20260505065356 | 21 | 192 | 8.0 | 22.5 | 0.00 | 0.00 | 0.00 | 77 | 1003.8 |
| 20260505065258 | 21 | 180 | 8.0 | 22.5 | 0.00 | 0.00 | 0.00 | 77 | 1003.9 |
| 20260505065057 | 21 | 202 | 9.7 | 20.9 | 0.00 | 0.00 | 0.00 | 77 | 1003.9 |
| 20260505064956 | 21 | 198 | 9.7 | 20.9 | 0.00 | 0.00 | 0.00 | 76 | 1003.9 |
| 20260505064857 | 21 | 168 | 11.3 | 20.9 | 0.00 | 0.00 | 0.00 | 76 | 1003.9 |
| 20260505064756 | 21 | 150 | 11.3 | 20.9 | 0.00 | 0.00 | 0.00 | 76 | 1004.0 |
| 20260505064656 | 21 | 162 | 11.3 | 20.9 | 0.00 | 0.00 | 0.00 | 76 | 1004.0 |
| 20260505064607 | 21 | 196 | 11.3 | 20.9 | 0.00 | 0.00 | 0.00 | 76 | 1003.1 |
| 20260505064455 | 21 | 194 | 12.9 | 20.9 | 0.00 | 0.00 | 0.00 | 76 | 1004.0 |
| 20260505064357 | 21 | 181 | 12.9 | 20.9 | 0.00 | 0.00 | 0.00 | 76 | 1004.0 |
| 20260505064156 | 21 | 189 | 11.3 | 20.9 | 0.00 | 0.00 | 0.00 | 76 | 1004.0 |
| 20260505064057 | 21 | 167 | 9.7 | 20.9 | 0.00 | 0.00 | 0.00 | 76 | 1004.1 |
| 20260505063957 | 21 | 219 | 12.9 | 22.5 | 0.00 | 0.00 | 0.00 | 76 | 1004.0 |
| 20260505063856 | 21 | 173 | 14.5 | 22.5 | 0.00 | 0.00 | 0.00 | 76 | 1004.2 |
| 20260505063756 | 21 | 182 | 12.9 | 20.9 | 0.00 | 0.00 | 0.00 | 76 | 1004.2 |
| 20260505063657 | 21 | 196 | 12.9 | 20.9 | 0.00 | 0.00 | 0.00 | 76 | 1004.1 |
| 20260505063556 | 21 | 176 | 12.9 | 20.9 | 0.00 | 0.00 | 0.00 | 76 | 1004.2 |
| 20260505063457 | 21 | 213 | 12.9 | 20.9 | 0.00 | 0.00 | 0.00 | 76 | 1004.2 |
| 20260505063356 | 21 | 192 | 12.9 | 19.3 | 0.00 | 0.00 | 0.00 | 76 | 1004.2 |
| 20260505063157 | 21 | 180 | 11.3 | 27.4 | 0.00 | 0.00 | 0.00 | 76 | 1004.2 |
| 20260505063056 | 21 | 195 | 9.7 | 27.4 | 0.00 | 0.00 | 0.00 | 75 | 1003.2 |
| 20260505062957 | 22 | 175 | 12.9 | 27.4 | 0.00 | 0.00 | 0.00 | 75 | 1004.1 |
| 20260505062758 | 22 | 202 | 12.9 | 27.4 | 0.00 | 0.00 | 0.00 | 75 | 1004.1 |
| 20260505062657 | 22 | 172 | 12.9 | 27.4 | 0.00 | 0.00 | 0.00 | 75 | 1004.1 |
| 20260505062556 | 22 | 192 | 14.5 | 27.4 | 0.00 | 0.00 | 0.00 | 75 | 1004.2 |
| 20260505062457 | 22 | 176 | 12.9 | 27.4 | 0.00 | 0.00 | 0.00 | 75 | 1004.1 |
| 20260505062356 | 22 | 163 | 12.9 | 25.7 | 0.00 | 0.00 | 0.00 | 75 | 1004.2 |
| 20260505062256 | 22 | 192 | 12.9 | 25.7 | 0.00 | 0.00 | 0.00 | 75 | 1004.2 |
| 20260505062156 | 22 | 191 | 14.5 | 25.7 | 0.00 | 0.00 | 0.00 | 75 | 1004.1 |
| 20260505062056 | 22 | 194 | 12.9 | 25.7 | 0.00 | 0.00 | 0.00 | 75 | 1004.2 |
| 20260505061956 | 22 | 172 | 11.3 | 25.7 | 0.00 | 0.00 | 0.00 | 75 | 1004.1 |
| 20260505061857 | 22 | 229 | 11.3 | 25.7 | 0.00 | 0.00 | 0.00 | 75 | 1004.3 |
| 20260505061757 | 22 | 173 | 12.9 | 25.7 | 0.00 | 0.00 | 0.00 | 75 | 1004.1 |
| 20260505061556 | 22 | 194 | 16.1 | 27.4 | 0.00 | 0.00 | 0.00 | 75 | 1004.2 |
| 20260505061457 | 22 | 174 | 12.9 | 27.4 | 0.00 | 0.00 | 0.00 | 75 | 1004.2 |
| 20260505061356 | 22 | 175 | 11.3 | 27.4 | 0.00 | 0.00 | 0.00 | 75 | 1004.2 |
| 20260505061256 | 22 | 175 | 9.7 | 27.4 | 0.00 | 0.00 | 0.00 | 74 | 1004.2 |
| 20260505061156 | 22 | 191 | 9.7 | 27.4 | 0.00 | 0.00 | 0.00 | 74 | 1004.2 |
| 20260505060858 | 22 | 192 | 14.5 | 27.4 | 0.00 | 0.00 | 0.00 | 74 | 1004.2 |
| 20260505060756 | 22 | 175 | 14.5 | 27.4 | 0.00 | 0.00 | 0.00 | 74 | 1004.1 |
| 20260505060656 | 22 | 178 | 12.9 | 29.0 | 0.00 | 0.00 | 0.00 | 74 | 1004.2 |
| 20260505060556 | 22 | 165 | 11.3 | 29.0 | 0.00 | 0.00 | 0.00 | 74 | 1004.2 |
| 20260505060456 | 22 | 193 | 9.7 | 29.0 | 0.00 | 0.00 | 0.00 | 74 | 1004.2 |
| 20260505060357 | 22 | 191 | 11.3 | 29.0 | 0.00 | 0.00 | 0.00 | 74 | 1004.1 |
| 20260505060257 | 22 | 180 | 14.5 | 29.0 | 0.00 | 0.00 | 0.00 | 74 | 1004.2 |
| 20260505060156 | 22 | 174 | 14.5 | 29.0 | 0.00 | 0.00 | 0.00 | 74 | 1004.2 |
| 20260505060056 | 22 | 180 | 14.5 | 29.0 | 0.00 | 0.00 | 0.00 | 74 | 1004.2 |
| 20260505060001 | 22 | 214 | 12.9 | 29.0 | 0.00 | 0.00 | 0.00 | 74 | 1003.2 |
| 20260505055902 | 22 | 198 | 14.5 | 27.4 | 0.00 | 0.00 | 0.00 | 74 | 1004.1 |
| 20260505055801 | 22 | 168 | 12.9 | 24.1 | 0.00 | 0.00 | 0.00 | 74 | 1004.1 |
| 20260505055701 | 22 | 178 | 12.9 | 24.1 | 0.00 | 0.00 | 0.00 | 74 | 1004.2 |
| 20260505055601 | 22 | 194 | 11.3 | 24.1 | 0.00 | 0.00 | 0.00 | 74 | 1004.1 |
| 20260505055502 | 22 | 193 | 12.9 | 24.1 | 0.00 | 0.00 | 0.00 | 74 | 1004.3 |
| 20260505055401 | 22 | 186 | 12.9 | 22.5 | 0.00 | 0.00 | 0.00 | 74 | 1004.2 |
| 20260505055300 | 22 | 171 | 14.5 | 22.5 | 0.00 | 0.00 | 0.00 | 74 | 1004.3 |
| 20260505055202 | 22 | 185 | 12.9 | 22.5 | 0.00 | 0.00 | 0.00 | 74 | 1004.2 |
| 20260505055102 | 22 | 188 | 12.9 | 22.5 | 0.00 | 0.00 | 0.00 | 74 | 1004.1 |
| 20260505055002 | 22 | 192 | 12.9 | 22.5 | 0.00 | 0.00 | 0.00 | 74 | 1004.2 |
| 20260505054902 | 22 | 182 | 12.9 | 22.5 | 0.00 | 0.00 | 0.00 | 74 | 1004.0 |
| 20260505054802 | 22 | 192 | 14.5 | 22.5 | 0.00 | 0.00 | 0.00 | 74 | 1004.1 |
| 20260505054621 | 22 | 161 | 11.3 | 20.9 | 0.00 | 0.00 | 0.00 | 74 | 1003.1 |
| 20260505054604 | 22 | 161 | 12.9 | 20.9 | 0.00 | 0.00 | 0.00 | 74 | 1004.1 |
| 20260505054502 | 22 | 212 | 11.3 | 20.9 | 0.00 | 0.00 | 0.00 | 74 | 1004.1 |
| 20260505054500 | 22 | 212 | 11.3 | 20.9 | 0.00 | 0.00 | 0.00 | 74 | 1003.1 |
| 20260505054401 | 22 | 175 | 11.3 | 20.9 | 0.00 | 0.00 | 0.00 | 74 | 1004.2 |
| 20260505054301 | 22 | 187 | 11.3 | 20.9 | 0.00 | 0.00 | 0.00 | 74 | 1004.2 |
| 20260505054202 | 22 | 183 | 12.9 | 20.9 | 0.00 | 0.00 | 0.00 | 74 | 1004.1 |
| 20260505053802 | 22 | 175 | 11.3 | 22.5 | 0.00 | 0.00 | 0.00 | 73 | 1004.1 |
| 20260505053701 | 22 | 184 | 11.3 | 22.5 | 0.00 | 0.00 | 0.00 | 73 | 1004.2 |
| 20260505053601 | 22 | 183 | 12.9 | 22.5 | 0.00 | 0.00 | 0.00 | 73 | 1004.2 |
| 20260505053502 | 22 | 161 | 12.9 | 25.7 | 0.00 | 0.00 | 0.00 | 73 | 1004.1 |
| 20260505053402 | 22 | 188 | 12.9 | 25.7 | 0.00 | 0.00 | 0.00 | 73 | 1004.2 |
| 20260505053302 | 22 | 175 | 12.9 | 25.7 | 0.00 | 0.00 | 0.00 | 73 | 1004.2 |
| 20260505053202 | 22 | 202 | 14.5 | 25.7 | 0.00 | 0.00 | 0.00 | 73 | 1004.3 |
| 20260505053102 | 22 | 180 | 14.5 | 25.7 | 0.00 | 0.00 | 0.00 | 73 | 1004.2 |
| 20260505053001 | 22 | 178 | 12.9 | 27.4 | 0.00 | 0.00 | 0.00 | 73 | 1004.2 |
| 20260505052901 | 22 | 171 | 14.5 | 27.4 | 0.00 | 0.00 | 0.00 | 73 | 1004.3 |
| 20260505052701 | 22 | 184 | 14.5 | 27.4 | 0.00 | 0.00 | 0.00 | 73 | 1004.3 |
| 20260505052501 | 22 | 200 | 16.1 | 27.4 | 0.00 | 0.00 | 0.00 | 73 | 1004.4 |
| 20260505052402 | 22 | 160 | 16.1 | 27.4 | 0.00 | 0.00 | 0.00 | 73 | 1004.2 |
| 20260505052304 | 22 | 175 | 14.5 | 30.6 | 0.00 | 0.00 | 0.00 | 72 | 1004.3 |
| 20260505052202 | 22 | 178 | 14.5 | 30.6 | 0.00 | 0.00 | 0.00 | 72 | 1004.3 |
| 20260505052102 | 22 | 208 | 12.9 | 30.6 | 0.00 | 0.00 | 0.00 | 72 | 1004.3 |
| 20260505052001 | 22 | 186 | 14.5 | 30.6 | 0.00 | 0.00 | 0.00 | 72 | 1004.3 |
| 20260505051902 | 22 | 190 | 16.1 | 30.6 | 0.00 | 0.00 | 0.00 | 72 | 1004.3 |
| 20260505051801 | 22 | 182 | 16.1 | 30.6 | 0.00 | 0.00 | 0.00 | 72 | 1004.5 |
| 20260505051701 | 22 | 202 | 17.7 | 30.6 | 0.00 | 0.00 | 0.00 | 72 | 1004.5 |
| 20260505051601 | 22 | 188 | 16.1 | 30.6 | 0.00 | 0.00 | 0.00 | 72 | 1003.4 |
| 20260505051501 | 22 | 154 | 17.7 | 30.6 | 0.00 | 0.00 | 0.00 | 72 | 1004.5 |
| 20260505051403 | 22 | 191 | 16.1 | 30.6 | 0.00 | 0.00 | 0.00 | 72 | 1004.4 |
| 20260505051302 | 22 | 210 | 16.1 | 25.7 | 0.00 | 0.00 | 0.00 | 72 | 1004.5 |
| 20260505051101 | 22 | 182 | 14.5 | 29.0 | 0.00 | 0.00 | 0.00 | 72 | 1004.5 |
| 20260505050901 | 22 | 191 | 16.1 | 29.0 | 0.00 | 0.00 | 0.00 | 72 | 1004.5 |
| 20260505050802 | 22 | 182 | 17.7 | 29.0 | 0.00 | 0.00 | 0.00 | 72 | 1004.5 |
| 20260505050701 | 22 | 214 | 16.1 | 29.0 | 0.00 | 0.00 | 0.00 | 72 | 1004.6 |
| 20260505050602 | 22 | 192 | 14.5 | 29.0 | 0.00 | 0.00 | 0.00 | 72 | 1004.5 |
| 20260505050502 | 22 | 169 | 14.5 | 32.2 | 0.00 | 0.00 | 0.00 | 72 | 1004.8 |
| 20260505050401 | 22 | 169 | 17.7 | 32.2 | 0.00 | 0.00 | 0.00 | 72 | 1004.6 |
| 20260505050302 | 22 | 178 | 19.3 | 32.2 | 0.00 | 0.00 | 0.00 | 72 | 1004.7 |
| 20260505050203 | 22 | 178 | 17.7 | 32.2 | 0.00 | 0.00 | 0.00 | 72 | 1004.6 |
| 20260505041702 | 22 | 194 | 12.9 | 22.5 | 0.00 | 0.00 | 0.00 | 72 | 1005.0 |
| 20260505041601 | 22 | 176 | 12.9 | 22.5 | 0.00 | 0.00 | 0.00 | 72 | 1004.8 |
| 20260505041504 | 22 | 188 | 11.3 | 22.5 | 0.00 | 0.00 | 0.00 | 72 | 1003.8 |
| 20260505041501 | 22 | 188 | 12.9 | 22.5 | 0.00 | 0.00 | 0.00 | 72 | 1004.7 |
| 20260505041302 | 22 | 194 | 11.3 | 22.5 | 0.00 | 0.00 | 0.00 | 72 | 1004.8 |
| 20260505041201 | 22 | 199 | 12.9 | 22.5 | 0.00 | 0.00 | 0.00 | 72 | 1004.8 |
| 20260505041101 | 22 | 169 | 14.5 | 22.5 | 0.00 | 0.00 | 0.00 | 72 | 1004.7 |
| 20260505041002 | 22 | 196 | 16.1 | 22.5 | 0.00 | 0.00 | 0.00 | 72 | 1004.8 |
| 20260505040901 | 22 | 204 | 14.5 | 22.5 | 0.00 | 0.00 | 0.00 | 72 | 1004.8 |
| 20260505040801 | 22 | 221 | 14.5 | 22.5 | 0.00 | 0.00 | 0.00 | 72 | 1004.9 |
| 20260505040702 | 22 | 173 | 14.5 | 22.5 | 0.00 | 0.00 | 0.00 | 72 | 1004.7 |
| 20260505040600 | 22 | 190 | 14.5 | 22.5 | 0.00 | 0.00 | 0.00 | 72 | 1005.0 |
| 20260505040501 | 22 | 175 | 14.5 | 25.7 | 0.00 | 0.00 | 0.00 | 72 | 1004.9 |
| 20260505040402 | 22 | 175 | 12.9 | 25.7 | 0.00 | 0.00 | 0.00 | 72 | 1004.9 |
| 20260505040310 | 22 | 192 | 12.9 | 25.7 | 0.00 | 0.00 | 0.00 | 72 | 1004.9 |
| 20260505040201 | 22 | 164 | 11.3 | 25.7 | 0.00 | 0.00 | 0.00 | 72 | 1005.0 |
| 20260505040001 | 22 | 171 | 11.3 | 25.7 | 0.00 | 0.00 | 0.00 | 72 | 1003.9 |
| 20260505035902 | 22 | 175 | 12.9 | 25.7 | 0.00 | 0.00 | 0.00 | 72 | 1004.9 |
| 20260505035801 | 22 | 190 | 12.9 | 25.7 | 0.00 | 0.00 | 0.00 | 72 | 1004.9 |
| 20260505035701 | 22 | 178 | 12.9 | 25.7 | 0.00 | 0.00 | 0.00 | 72 | 1004.9 |
| 20260505035602 | 22 | 157 | 12.9 | 24.1 | 0.00 | 0.00 | 0.00 | 72 | 1004.8 |
| 20260505035501 | 22 | 181 | 12.9 | 29.0 | 0.00 | 0.00 | 0.00 | 72 | 1004.7 |
| 20260505035402 | 22 | 183 | 14.5 | 29.0 | 0.00 | 0.00 | 0.00 | 72 | 1004.7 |
| 20260505035301 | 22 | 171 | 12.9 | 29.0 | 0.00 | 0.00 | 0.00 | 72 | 1004.7 |
| 20260505035202 | 22 | 175 | 11.3 | 29.0 | 0.00 | 0.00 | 0.00 | 72 | 1004.7 |
| 20260505035101 | 22 | 159 | 11.3 | 29.0 | 0.00 | 0.00 | 0.00 | 72 | 1004.8 |
| 20260505035002 | 22 | 137 | 11.3 | 29.0 | 0.00 | 0.00 | 0.00 | 72 | 1004.7 |
| 20260505034901 | 22 | 161 | 12.9 | 29.0 | 0.00 | 0.00 | 0.00 | 72 | 1004.7 |
| 20260505034801 | 22 | 162 | 12.9 | 29.0 | 0.00 | 0.00 | 0.00 | 72 | 1004.8 |
| 20260505034702 | 22 | 160 | 14.5 | 29.0 | 0.00 | 0.00 | 0.00 | 72 | 1004.7 |
| 20260505034601 | 22 | 166 | 16.1 | 29.0 | 0.00 | 0.00 | 0.00 | 72 | 1004.7 |
| 20260505034501 | 22 | 189 | 12.9 | 29.0 | 0.00 | 0.00 | 0.00 | 72 | 1003.9 |
| 20260505034401 | 22 | 172 | 12.9 | 24.1 | 0.00 | 0.00 | 0.00 | 72 | 1004.9 |
| 20260505034302 | 22 | 169 | 12.9 | 24.1 | 0.00 | 0.00 | 0.00 | 72 | 1004.9 |
| 20260505034202 | 22 | 192 | 16.1 | 24.1 | 0.00 | 0.00 | 0.00 | 72 | 1004.7 |
| 20260505034102 | 22 | 185 | 14.5 | 24.1 | 0.00 | 0.00 | 0.00 | 72 | 1004.7 |
| 20260505034002 | 22 | 183 | 12.9 | 27.4 | 0.00 | 0.00 | 0.00 | 72 | 1004.9 |
| 20260505033901 | 22 | 158 | 11.3 | 19.3 | 0.00 | 0.00 | 0.00 | 72 | 1004.8 |
| 20260505033801 | 22 | 207 | 12.9 | 17.7 | 0.00 | 0.00 | 0.00 | 72 | 1004.9 |
| 20260505033702 | 22 | 155 | 12.9 | 22.5 | 0.00 | 0.00 | 0.00 | 72 | 1004.8 |
| 20260505033601 | 22 | 186 | 12.9 | 27.4 | 0.00 | 0.00 | 0.00 | 72 | 1004.9 |
| 20260505033501 | 22 | 174 | 12.9 | 27.4 | 0.00 | 0.00 | 0.00 | 71 | 1004.8 |
| 20260505033402 | 22 | 146 | 12.9 | 27.4 | 0.00 | 0.00 | 0.00 | 71 | 1004.8 |
| 20260505033202 | 22 | 169 | 12.9 | 27.4 | 0.00 | 0.00 | 0.00 | 71 | 1004.8 |
| 20260505033101 | 22 | 182 | 14.5 | 27.4 | 0.00 | 0.00 | 0.00 | 71 | 1004.9 |
| 20260505033002 | 22 | 171 | 16.1 | 27.4 | 0.00 | 0.00 | 0.00 | 71 | 1004.9 |
| 20260505032902 | 22 | 181 | 14.5 | 27.4 | 0.00 | 0.00 | 0.00 | 71 | 1004.9 |
| 20260505032801 | 22 | 159 | 14.5 | 27.4 | 0.00 | 0.00 | 0.00 | 71 | 1005.1 |
| 20260505032601 | 22 | 187 | 12.9 | 20.9 | 0.00 | 0.00 | 0.00 | 71 | 1005.0 |
| 20260505032401 | 22 | 194 | 11.3 | 22.5 | 0.00 | 0.00 | 0.00 | 71 | 1005.0 |
| 20260505032301 | 22 | 171 | 12.9 | 22.5 | 0.00 | 0.00 | 0.00 | 71 | 1005.0 |
| 20260505032201 | 22 | 192 | 12.9 | 22.5 | 0.00 | 0.00 | 0.00 | 71 | 1005.1 |
| 20260505032101 | 22 | 194 | 11.3 | 22.5 | 0.00 | 0.00 | 0.00 | 71 | 1005.0 |
| 20260505032002 | 22 | 189 | 11.3 | 22.5 | 0.00 | 0.00 | 0.00 | 71 | 1005.0 |
| 20260505031901 | 22 | 154 | 11.3 | 22.5 | 0.00 | 0.00 | 0.00 | 71 | 1005.1 |
| 20260505031801 | 22 | 180 | 11.3 | 24.1 | 0.00 | 0.00 | 0.00 | 71 | 1005.1 |
| 20260505031701 | 22 | 182 | 12.9 | 24.1 | 0.00 | 0.00 | 0.00 | 71 | 1005.0 |
| 20260505031602 | 22 | 167 | 12.9 | 24.1 | 0.00 | 0.00 | 0.00 | 71 | 1005.0 |
| 20260505031506 | 22 | 165 | 12.9 | 24.1 | 0.00 | 0.00 | 0.00 | 71 | 1004.1 |
| 20260505031502 | 22 | 165 | 14.5 | 24.1 | 0.00 | 0.00 | 0.00 | 71 | 1005.0 |
| 20260505031401 | 22 | 192 | 12.9 | 24.1 | 0.00 | 0.00 | 0.00 | 71 | 1005.1 |
| 20260505031302 | 22 | 223 | 12.9 | 24.1 | 0.00 | 0.00 | 0.00 | 71 | 1005.0 |
| 20260505031201 | 22 | 173 | 14.5 | 24.1 | 0.00 | 0.00 | 0.00 | 71 | 1005.2 |
| 20260505031002 | 22 | 182 | 14.5 | 27.4 | 0.00 | 0.00 | 0.00 | 71 | 1005.1 |
| 20260505030902 | 22 | 179 | 14.5 | 27.4 | 0.00 | 0.00 | 0.00 | 71 | 1005.0 |
| 20260505030801 | 22 | 178 | 14.5 | 27.4 | 0.00 | 0.00 | 0.00 | 70 | 1005.0 |
| 20260505030701 | 22 | 173 | 14.5 | 27.4 | 0.00 | 0.00 | 0.00 | 70 | 1005.0 |
| 20260505030601 | 22 | 160 | 12.9 | 27.4 | 0.00 | 0.00 | 0.00 | 70 | 1004.9 |
| 20260505030501 | 22 | 186 | 12.9 | 27.4 | 0.00 | 0.00 | 0.00 | 70 | 1004.9 |
| 20260505030401 | 22 | 157 | 14.5 | 27.4 | 0.00 | 0.00 | 0.00 | 71 | 1005.0 |
| 20260505030302 | 22 | 182 | 14.5 | 27.4 | 0.00 | 0.00 | 0.00 | 71 | 1005.0 |
| 20260505030201 | 22 | 192 | 12.9 | 22.5 | 0.00 | 0.00 | 0.00 | 71 | 1004.9 |
| 20260505030003 | 22 | 188 | 12.9 | 22.5 | 0.00 | 0.00 | 0.00 | 70 | 1004.9 |
| 20260505025902 | 22 | 177 | 11.3 | 20.9 | 0.00 | 0.00 | 0.00 | 70 | 1004.9 |
| 20260505025801 | 22 | 178 | 11.3 | 19.3 | 0.00 | 0.00 | 0.00 | 70 | 1004.9 |
| 20260505025701 | 22 | 163 | 11.3 | 19.3 | 0.00 | 0.00 | 0.00 | 70 | 1004.9 |
| 20260505025602 | 22 | 185 | 12.9 | 19.3 | 0.00 | 0.00 | 0.00 | 70 | 1004.9 |
| 20260505025501 | 22 | 185 | 14.5 | 20.9 | 0.00 | 0.00 | 0.00 | 70 | 1005.0 |
| 20260505025304 | 22 | 202 | 12.9 | 20.9 | 0.00 | 0.00 | 0.00 | 70 | 1005.0 |
| 20260505025201 | 22 | 159 | 11.3 | 20.9 | 0.00 | 0.00 | 0.00 | 70 | 1005.0 |
| 20260505025102 | 22 | 167 | 11.3 | 20.9 | 0.00 | 0.00 | 0.00 | 70 | 1005.0 |
| 20260505024902 | 22 | 181 | 11.3 | 20.9 | 0.00 | 0.00 | 0.00 | 70 | 1004.9 |
| 20260505024802 | 22 | 163 | 12.9 | 20.9 | 0.00 | 0.00 | 0.00 | 70 | 1005.0 |
| 20260505024702 | 22 | 171 | 11.3 | 22.5 | 0.00 | 0.00 | 0.00 | 70 | 1004.8 |
| 20260505024602 | 22 | 181 | 11.3 | 19.3 | 0.00 | 0.00 | 0.00 | 70 | 1004.8 |
| 20260505024503 | 22 | 183 | 11.3 | 29.0 | 0.00 | 0.00 | 0.00 | 70 | 1003.9 |
| 20260505024402 | 22 | 207 | 11.3 | 29.0 | 0.00 | 0.00 | 0.00 | 70 | 1004.8 |
| 20260505024301 | 22 | 182 | 11.3 | 29.0 | 0.00 | 0.00 | 0.00 | 70 | 1004.9 |
| 20260505024101 | 22 | 203 | 14.5 | 27.4 | 0.00 | 0.00 | 0.00 | 70 | 1004.8 |
| 20260505024001 | 22 | 169 | 11.3 | 27.4 | 0.00 | 0.00 | 0.00 | 70 | 1004.8 |
| 20260505023901 | 22 | 190 | 11.3 | 27.4 | 0.00 | 0.00 | 0.00 | 70 | 1004.8 |
| 20260505023802 | 22 | 171 | 12.9 | 27.4 | 0.00 | 0.00 | 0.00 | 70 | 1004.8 |
| 20260505023601 | 22 | 181 | 14.5 | 27.4 | 0.00 | 0.00 | 0.00 | 70 | 1004.8 |
| 20260505023501 | 22 | 177 | 14.5 | 27.4 | 0.00 | 0.00 | 0.00 | 70 | 1004.9 |
| 20260505023402 | 22 | 159 | 14.5 | 27.4 | 0.00 | 0.00 | 0.00 | 70 | 1004.9 |
| 20260505023301 | 22 | 215 | 12.9 | 27.4 | 0.00 | 0.00 | 0.00 | 70 | 1005.0 |
| 20260505023202 | 22 | 169 | 9.7 | 27.4 | 0.00 | 0.00 | 0.00 | 70 | 1005.0 |
| 20260505023101 | 22 | 190 | 9.7 | 27.4 | 0.00 | 0.00 | 0.00 | 70 | 1004.8 |
| 20260505023002 | 22 | 192 | 11.3 | 27.4 | 0.00 | 0.00 | 0.00 | 70 | 1004.9 |
| 20260505022901 | 22 | 159 | 11.3 | 27.4 | 0.00 | 0.00 | 0.00 | 70 | 1004.8 |
| 20260505022801 | 22 | 216 | 12.9 | 27.4 | 0.00 | 0.00 | 0.00 | 70 | 1004.9 |
| 20260505022702 | 22 | 175 | 11.3 | 22.5 | 0.00 | 0.00 | 0.00 | 69 | 1004.9 |
| 20260505022601 | 22 | 194 | 11.3 | 22.5 | 0.00 | 0.00 | 0.00 | 69 | 1005.0 |
| 20260505022502 | 22 | 185 | 12.9 | 22.5 | 0.00 | 0.00 | 0.00 | 69 | 1004.9 |
| 20260505022301 | 22 | 178 | 11.3 | 20.9 | 0.00 | 0.00 | 0.00 | 69 | 1004.8 |
| 20260505022202 | 22 | 146 | 9.7 | 19.3 | 0.00 | 0.00 | 0.00 | 69 | 1004.9 |
| 20260505022101 | 22 | 188 | 8.0 | 22.5 | 0.00 | 0.00 | 0.00 | 69 | 1004.9 |
| 20260505022001 | 22 | 192 | 8.0 | 22.5 | 0.00 | 0.00 | 0.00 | 69 | 1004.9 |
| 20260505021901 | 22 | 201 | 9.7 | 22.5 | 0.00 | 0.00 | 0.00 | 69 | 1004.9 |
| 20260505021803 | 22 | 205 | 12.9 | 22.5 | 0.00 | 0.00 | 0.00 | 69 | 1004.9 |
| 20260505021602 | 22 | 178 | 14.5 | 22.5 | 0.00 | 0.00 | 0.00 | 69 | 1004.7 |
| 20260505021503 | 22 | 160 | 14.5 | 22.5 | 0.00 | 0.00 | 0.00 | 69 | 1003.8 |
| 20260505021501 | 22 | 160 | 16.1 | 22.5 | 0.00 | 0.00 | 0.00 | 69 | 1004.7 |
| 20260505021401 | 22 | 180 | 16.1 | 24.1 | 0.00 | 0.00 | 0.00 | 69 | 1004.6 |
| 20260505021302 | 22 | 156 | 12.9 | 24.1 | 0.00 | 0.00 | 0.00 | 69 | 1004.6 |
| 20260505021202 | 22 | 161 | 12.9 | 24.1 | 0.00 | 0.00 | 0.00 | 69 | 1004.6 |
| 20260505021101 | 22 | 155 | 12.9 | 24.1 | 0.00 | 0.00 | 0.00 | 69 | 1004.6 |
| 20260505021001 | 22 | 188 | 11.3 | 25.7 | 0.00 | 0.00 | 0.00 | 69 | 1004.6 |
| 20260505020902 | 22 | 182 | 9.7 | 25.7 | 0.00 | 0.00 | 0.00 | 69 | 1004.6 |
| 20260505020702 | 22 | 165 | 9.7 | 25.7 | 0.00 | 0.00 | 0.00 | 69 | 1004.6 |
| 20260505020601 | 23 | 157 | 9.7 | 25.7 | 0.00 | 0.00 | 0.00 | 68 | 1004.6 |
| 20260505020501 | 23 | 168 | 9.7 | 25.7 | 0.00 | 0.00 | 0.00 | 68 | 1004.6 |
| 20260505020401 | 23 | 190 | 12.9 | 25.7 | 0.00 | 0.00 | 0.00 | 68 | 1004.6 |
| 20260505020302 | 23 | 193 | 14.5 | 25.7 | 0.00 | 0.00 | 0.00 | 68 | 1004.6 |
| 20260505020201 | 23 | 194 | 12.9 | 25.7 | 0.00 | 0.00 | 0.00 | 68 | 1004.7 |
| 20260505020101 | 23 | 134 | 11.3 | 24.1 | 0.00 | 0.00 | 0.00 | 68 | 1004.7 |
| 20260505020002 | 23 | 175 | 11.3 | 25.7 | 0.00 | 0.00 | 0.00 | 68 | 1003.9 |
| 20260505015800 | 23 | 213 | 11.3 | 22.5 | 0.00 | 0.00 | 0.00 | 68 | 1004.7 |
| 20260505015701 | 23 | 186 | 9.7 | 22.5 | 0.00 | 0.00 | 0.00 | 68 | 1004.6 |
| 20260505015600 | 23 | 217 | 8.0 | 22.5 | 0.00 | 0.00 | 0.00 | 68 | 1004.6 |
| 20260505015401 | 23 | 183 | 12.9 | 27.4 | 0.00 | 0.00 | 0.00 | 67 | 1004.6 |
| 20260505015300 | 23 | 201 | 14.5 | 27.4 | 0.00 | 0.00 | 0.00 | 67 | 1004.7 |
| 20260505015200 | 23 | 181 | 14.5 | 27.4 | 0.00 | 0.00 | 0.00 | 67 | 1004.6 |
| 20260505015100 | 23 | 200 | 12.9 | 27.4 | 0.00 | 0.00 | 0.00 | 67 | 1004.5 |
| 20260505014901 | 23 | 199 | 12.9 | 27.4 | 0.00 | 0.00 | 0.00 | 67 | 1004.5 |
| 20260505014800 | 23 | 195 | 14.5 | 27.4 | 0.00 | 0.00 | 0.00 | 67 | 1004.5 |
| 20260505014700 | 23 | 207 | 14.5 | 27.4 | 0.00 | 0.00 | 0.00 | 67 | 1004.6 |
| 20260505014601 | 23 | 189 | 14.5 | 25.7 | 0.00 | 0.00 | 0.00 | 67 | 1004.5 |
| 20260505014500 | 23 | 190 | 16.1 | 25.7 | 0.00 | 0.00 | 0.00 | 67 | 1004.6 |
| 20260505014400 | 23 | 188 | 12.9 | 25.7 | 0.00 | 0.00 | 0.00 | 67 | 1004.5 |
| 20260505014301 | 23 | 178 | 12.9 | 25.7 | 0.00 | 0.00 | 0.00 | 67 | 1004.5 |
| 20260505014200 | 23 | 169 | 14.5 | 25.7 | 0.00 | 0.00 | 0.00 | 67 | 1004.5 |
| 20260505014101 | 23 | 198 | 14.5 | 27.4 | 0.00 | 0.00 | 0.00 | 67 | 1004.7 |
| 20260505014000 | 23 | 200 | 12.9 | 25.7 | 0.00 | 0.00 | 0.00 | 67 | 1004.6 |
| 20260505013700 | 23 | 184 | 12.9 | 27.4 | 0.00 | 0.00 | 0.00 | 67 | 1004.6 |
| 20260505013600 | 23 | 163 | 14.5 | 27.4 | 0.00 | 0.00 | 0.00 | 67 | 1004.4 |
| 20260505013500 | 23 | 167 | 14.5 | 27.4 | 0.00 | 0.00 | 0.00 | 67 | 1004.5 |
| 20260505013400 | 23 | 184 | 12.9 | 30.6 | 0.00 | 0.00 | 0.00 | 67 | 1004.5 |
| 20260505013301 | 23 | 152 | 12.9 | 30.6 | 0.00 | 0.00 | 0.00 | 66 | 1004.5 |
| 20260505013200 | 23 | 191 | 12.9 | 30.6 | 0.00 | 0.00 | 0.00 | 66 | 1004.5 |
| 20260505013101 | 23 | 159 | 11.3 | 30.6 | 0.00 | 0.00 | 0.00 | 66 | 1003.8 |
| 20260505013000 | 23 | 207 | 14.5 | 30.6 | 0.00 | 0.00 | 0.00 | 66 | 1004.6 |
| 20260505012900 | 23 | 209 | 14.5 | 30.6 | 0.00 | 0.00 | 0.00 | 66 | 1004.5 |
| 20260505012700 | 23 | 170 | 14.5 | 30.6 | 0.00 | 0.00 | 0.00 | 66 | 1004.7 |
| 20260505012600 | 23 | 179 | 12.9 | 30.6 | 0.00 | 0.00 | 0.00 | 66 | 1004.4 |
| 20260505012500 | 23 | 180 | 12.9 | 29.0 | 0.00 | 0.00 | 0.00 | 66 | 1004.4 |
| 20260505012300 | 23 | 191 | 16.1 | 29.0 | 0.00 | 0.00 | 0.00 | 66 | 1004.6 |
| 20260505012002 | 23 | 194 | 14.5 | 29.0 | 0.00 | 0.00 | 0.00 | 66 | 1004.4 |
| 20260505011900 | 23 | 198 | 16.1 | 29.0 | 0.00 | 0.00 | 0.00 | 66 | 1004.4 |
| 20260505011800 | 23 | 209 | 14.5 | 29.0 | 0.00 | 0.00 | 0.00 | 66 | 1004.5 |
| 20260505011700 | 23 | 187 | 14.5 | 29.0 | 0.00 | 0.00 | 0.00 | 66 | 1004.3 |
| 20260505011601 | 23 | 196 | 14.5 | 29.0 | 0.00 | 0.00 | 0.00 | 66 | 1003.5 |
| 20260505011501 | 23 | 174 | 14.5 | 29.0 | 0.00 | 0.00 | 0.00 | 66 | 1004.4 |
| 20260505011300 | 23 | 169 | 14.5 | 32.2 | 0.00 | 0.00 | 0.00 | 66 | 1004.4 |
| 20260505011201 | 23 | 188 | 14.5 | 25.7 | 0.00 | 0.00 | 0.00 | 66 | 1004.3 |
| 20260505011101 | 23 | 210 | 14.5 | 25.7 | 0.00 | 0.00 | 0.00 | 66 | 1004.3 |
| 20260505010902 | 23 | 184 | 11.3 | 25.7 | 0.00 | 0.00 | 0.00 | 66 | 1004.3 |
| 20260505010801 | 23 | 201 | 12.9 | 25.7 | 0.00 | 0.00 | 0.00 | 66 | 1004.3 |
| 20260505010701 | 23 | 190 | 12.9 | 25.7 | 0.00 | 0.00 | 0.00 | 65 | 1004.3 |
| 20260505010600 | 23 | 194 | 14.5 | 25.7 | 0.00 | 0.00 | 0.00 | 65 | 1004.5 |
| 20260505010500 | 23 | 194 | 12.9 | 24.1 | 0.00 | 0.00 | 0.00 | 65 | 1004.4 |
| 20260505010401 | 23 | 175 | 14.5 | 24.1 | 0.00 | 0.00 | 0.00 | 66 | 1004.4 |
| 20260505010301 | 23 | 206 | 14.5 | 24.1 | 0.00 | 0.00 | 0.00 | 65 | 1004.5 |
| 20260505010200 | 23 | 168 | 14.5 | 24.1 | 0.00 | 0.00 | 0.00 | 65 | 1004.5 |
| 20260505010113 | 23 | 171 | 12.9 | 24.1 | 0.00 | 0.00 | 0.00 | 65 | 1003.6 |
| 20260505010100 | 23 | 171 | 12.9 | 24.1 | 0.00 | 0.00 | 0.00 | 65 | 1004.5 |
| 20260505010004 | 23 | 184 | 12.9 | 24.1 | 0.00 | 0.00 | 0.00 | 65 | 1003.6 |
| 20260505010002 | 23 | 184 | 14.5 | 24.1 | 0.00 | 0.00 | 0.00 | 65 | 1004.5 |
| 20260505005901 | 23 | 175 | 14.5 | 24.1 | 0.00 | 0.00 | 0.00 | 65 | 1004.6 |
| 20260505005801 | 23 | 165 | 14.5 | 24.1 | 0.00 | 0.00 | 0.00 | 65 | 1004.6 |
| 20260505005702 | 23 | 194 | 14.5 | 24.1 | 0.00 | 0.00 | 0.00 | 65 | 1004.7 |
| 20260505005403 | 23 | 190 | 12.9 | 24.1 | 0.00 | 0.00 | 0.00 | 65 | 1004.7 |
| 20260505005303 | 23 | 200 | 12.9 | 24.1 | 0.00 | 0.00 | 0.00 | 65 | 1004.6 |
| 20260505005202 | 23 | 157 | 12.9 | 24.1 | 0.00 | 0.00 | 0.00 | 65 | 1004.5 |
| 20260505005101 | 23 | 192 | 11.3 | 24.1 | 0.00 | 0.00 | 0.00 | 65 | 1004.6 |
| 20260505005001 | 23 | 186 | 11.3 | 24.1 | 0.00 | 0.00 | 0.00 | 65 | 1004.6 |
| 20260505004901 | 23 | 196 | 12.9 | 24.1 | 0.00 | 0.00 | 0.00 | 65 | 1004.6 |
| 20260505004701 | 23 | 182 | 12.9 | 24.1 | 0.00 | 0.00 | 0.00 | 65 | 1004.6 |
| 20260505004602 | 23 | 182 | 12.9 | 22.5 | 0.00 | 0.00 | 0.00 | 65 | 1004.6 |
| 20260505004502 | 23 | 183 | 11.3 | 22.5 | 0.00 | 0.00 | 0.00 | 65 | 1003.6 |
| 20260505004301 | 23 | 179 | 11.3 | 25.7 | 0.00 | 0.00 | 0.00 | 64 | 1004.6 |
| 20260505004202 | 23 | 215 | 9.7 | 25.7 | 0.00 | 0.00 | 0.00 | 64 | 1004.6 |
| 20260505004101 | 23 | 204 | 11.3 | 25.7 | 0.00 | 0.00 | 0.00 | 64 | 1004.7 |
| 20260505003901 | 24 | 188 | 16.1 | 30.6 | 0.00 | 0.00 | 0.00 | 65 | 1004.8 |
| 20260505003802 | 24 | 187 | 14.5 | 30.6 | 0.00 | 0.00 | 0.00 | 64 | 1004.8 |
| 20260505003501 | 24 | 171 | 12.9 | 30.6 | 0.00 | 0.00 | 0.00 | 64 | 1004.8 |
| 20260505003402 | 24 | 175 | 12.9 | 30.6 | 0.00 | 0.00 | 0.00 | 64 | 1004.8 |
| 20260505003301 | 24 | 183 | 16.1 | 30.6 | 0.00 | 0.00 | 0.00 | 64 | 1004.9 |
| 20260505003202 | 24 | 136 | 16.1 | 30.6 | 0.00 | 0.00 | 0.00 | 63 | 1004.9 |
| 20260505003001 | 24 | 182 | 11.3 | 32.2 | 0.00 | 0.00 | 0.00 | 64 | 1003.9 |
| 20260505002903 | 24 | 208 | 11.3 | 32.2 | 0.00 | 0.00 | 0.00 | 64 | 1004.6 |
| 20260505002801 | 24 | 205 | 12.9 | 32.2 | 0.00 | 0.00 | 0.00 | 64 | 1004.7 |